Wetterdaten: Montag, 14.01.2019
Datum Zeit Temp. Aussen Temp. o. S. +5cm Feuchte Auss Luftdruck Regen Sonnenschein Regendauer Solar Windben Empfang
14.01.2019 00:00 6,1 C 5,0 C 4,4 C 93 % 1002,3 hPa 0,0 l/m 0 min 0 min 0 W/m 9,7 km/h (2 Bft) 97,87 %
14.01.2019 00:02 6,1 C 5,0 C 4,4 C 94 % 1002,3 hPa 0,0 l/m 0 min 0 min 0 W/m 9,7 km/h (2 Bft) 94,59 %
14.01.2019 00:04 6,1 C 5,0 C 4,4 C 94 % 1002,3 hPa 0,0 l/m 0 min 0 min 0 W/m 9,7 km/h (2 Bft) 97,87 %
14.01.2019 00:08 6,1 C 5,6 C 4,4 C 94 % 1002,3 hPa 0,0 l/m 0 min 0 min 0 W/m 19,3 km/h (3 Bft) 96,77 %
14.01.2019 00:10 6,1 C 5,6 C 4,4 C 94 % 1002,4 hPa 0,0 l/m 0 min 0 min 0 W/m 12,9 km/h (3 Bft) 93,62 %
14.01.2019 00:12 6,1 C 5,6 C 4,4 C 94 % 1002,4 hPa 0,0 l/m 0 min 0 min 0 W/m 12,9 km/h (3 Bft) 95,74 %
14.01.2019 00:14 6,1 C 5,6 C 4,4 C 94 % 1002,4 hPa 0,0 l/m 0 min 2 min 0 W/m 16,1 km/h (3 Bft) 93,62 %
14.01.2019 00:16 6,2 C 5,6 C 4,4 C 94 % 1002,4 hPa 0,0 l/m 0 min 2 min 0 W/m 16,1 km/h (3 Bft) 91,49 %
14.01.2019 00:18 6,2 C 5,6 C 4,4 C 94 % 1002,5 hPa 0,0 l/m 0 min 2 min 0 W/m 16,1 km/h (3 Bft) 93,48 %
14.01.2019 00:20 6,2 C 5,6 C 4,4 C 94 % 1002,5 hPa 0,0 l/m 0 min 2 min 0 W/m 12,9 km/h (3 Bft) 93,62 %
14.01.2019 00:22 6,2 C 5,6 C 4,4 C 94 % 1002,5 hPa 0,0 l/m 0 min 2 min 0 W/m 19,3 km/h (3 Bft) 93,62 %
14.01.2019 00:24 6,3 C 5,6 C 4,4 C 95 % 1002,6 hPa 0,0 l/m 0 min 2 min 0 W/m 16,1 km/h (3 Bft) 91,49 %
14.01.2019 00:26 6,3 C 5,6 C 4,4 C 95 % 1002,5 hPa 0,0 l/m 0 min 2 min 0 W/m 32,2 km/h (5 Bft) 91,49 %
14.01.2019 00:28 6,3 C 5,6 C 4,4 C 95 % 1002,7 hPa 0,2 l/m 0 min 2 min 0 W/m 25,7 km/h (4 Bft) 93,48 %
14.01.2019 00:30 6,3 C 5,6 C 4,4 C 95 % 1002,6 hPa 0,0 l/m 0 min 2 min 0 W/m 25,7 km/h (4 Bft) 91,49 %
14.01.2019 00:32 6,3 C 5,6 C 4,4 C 95 % 1002,6 hPa 0,0 l/m 0 min 2 min 0 W/m 19,3 km/h (3 Bft) 87,23 %
14.01.2019 00:34 6,3 C 5,6 C 4,4 C 95 % 1002,7 hPa 0,0 l/m 0 min 2 min 0 W/m 22,5 km/h (4 Bft) 93,62 %
14.01.2019 00:36 6,3 C 5,6 C 4,4 C 95 % 1002,7 hPa 0,0 l/m 0 min 2 min 0 W/m 16,1 km/h (3 Bft) 96,61 %
14.01.2019 00:38 6,3 C 5,6 C 4,4 C 95 % 1002,7 hPa 0,0 l/m 0 min 2 min 0 W/m 19,3 km/h (3 Bft) 91,43 %
14.01.2019 00:40 6,3 C 5,6 C 4,4 C 95 % 1002,7 hPa 0,0 l/m 0 min 2 min 0 W/m 29,0 km/h (5 Bft) 93,48 %
14.01.2019 00:42 6,3 C 5,6 C 4,4 C 94 % 1002,5 hPa 0,0 l/m 0 min 2 min 0 W/m 19,3 km/h (3 Bft) 95,74 %
14.01.2019 00:44 6,3 C 5,6 C 4,4 C 94 % 1002,6 hPa 0,0 l/m 0 min 2 min 0 W/m 22,5 km/h (4 Bft) 93,62 %
14.01.2019 00:46 6,3 C 5,6 C 4,4 C 94 % 1002,6 hPa 0,0 l/m 0 min 2 min 0 W/m 22,5 km/h (4 Bft) 93,62 %
14.01.2019 00:48 6,3 C 5,6 C 4,4 C 94 % 1002,6 hPa 0,0 l/m 0 min 2 min 0 W/m 25,7 km/h (4 Bft) 95,74 %
14.01.2019 00:50 6,3 C 5,6 C 4,4 C 95 % 1002,8 hPa 0,0 l/m 0 min 2 min 0 W/m 19,3 km/h (3 Bft) 95,74 %
14.01.2019 00:52 6,3 C 5,6 C 4,4 C 94 % 1002,6 hPa 0,0 l/m 0 min 2 min 0 W/m 25,7 km/h (4 Bft) 97,83 %
14.01.2019 00:54 6,3 C 6,1 C 4,4 C 94 % 1002,7 hPa 0,0 l/m 0 min 2 min 0 W/m 22,5 km/h (4 Bft) 95,74 %
14.01.2019 00:56 6,3 C 5,6 C 4,4 C 94 % 1002,7 hPa 0,0 l/m 0 min 2 min 0 W/m 12,9 km/h (3 Bft) 93,62 %
14.01.2019 00:58 6,3 C 5,6 C 4,4 C 94 % 1002,8 hPa 0,0 l/m 0 min 2 min 0 W/m 19,3 km/h (3 Bft) 97,87 %
14.01.2019 01:00 6,4 C 5,6 C 4,4 C 94 % 1002,7 hPa 0,0 l/m 0 min 2 min 0 W/m 12,9 km/h (3 Bft) 97,87 %
14.01.2019 01:02 6,4 C 5,6 C 4,4 C 94 % 1002,8 hPa 0,0 l/m 0 min 2 min 0 W/m 12,9 km/h (3 Bft) 95,74 %
14.01.2019 01:04 6,4 C 5,6 C 4,4 C 95 % 1003,1 hPa 0,0 l/m 0 min 2 min 0 W/m 22,5 km/h (4 Bft) 95,65 %
14.01.2019 01:06 6,4 C 5,6 C 4,4 C 94 % 1003,4 hPa 0,0 l/m 0 min 2 min 0 W/m 22,5 km/h (4 Bft) 98,31 %
14.01.2019 01:08 6,2 C 5,0 C 3,9 C 94 % 1003,4 hPa 0,2 l/m 0 min 2 min 0 W/m 32,2 km/h (5 Bft) 97,14 %
14.01.2019 01:10 6,1 C 4,4 C 3,9 C 94 % 1003,3 hPa 0,0 l/m 0 min 2 min 0 W/m 22,5 km/h (4 Bft) 97,87 %
14.01.2019 01:12 6,0 C 4,4 C 3,9 C 94 % 1003,0 hPa 0,0 l/m 0 min 2 min 0 W/m 12,9 km/h (3 Bft) 95,74 %
14.01.2019 01:14 5,9 C 4,4 C 3,9 C 94 % 1003,4 hPa 0,2 l/m 0 min 2 min 0 W/m 32,2 km/h (5 Bft) 97,87 %
14.01.2019 01:16 5,7 C 4,4 C 3,9 C 94 % 1003,5 hPa 0,0 l/m 0 min 2 min 0 W/m 22,5 km/h (4 Bft) 97,83 %
14.01.2019 01:18 5,7 C 4,4 C 3,9 C 94 % 1003,2 hPa 0,0 l/m 0 min 2 min 0 W/m 22,5 km/h (4 Bft) 100,00 %
14.01.2019 01:20 5,6 C 4,4 C 3,9 C 94 % 1003,3 hPa 0,2 l/m 0 min 0 min 0 W/m 16,1 km/h (3 Bft) 97,87 %
14.01.2019 01:22 5,6 C 4,4 C 3,9 C 94 % 1003,4 hPa 0,0 l/m 0 min 2 min 0 W/m 22,5 km/h (4 Bft) 100,00 %
14.01.2019 01:24 5,5 C 4,4 C 3,9 C 94 % 1003,4 hPa 0,0 l/m 0 min 2 min 0 W/m 22,5 km/h (4 Bft) 95,74 %
14.01.2019 01:26 5,5 C 4,4 C 3,9 C 94 % 1003,4 hPa 0,0 l/m 0 min 2 min 0 W/m 29,0 km/h (5 Bft) 100,00 %
14.01.2019 01:28 5,5 C 4,4 C 3,9 C 94 % 1003,6 hPa 0,0 l/m 0 min 0 min 0 W/m 22,5 km/h (4 Bft) 100,00 %
14.01.2019 01:30 5,6 C 4,4 C 3,9 C 94 % 1003,4 hPa 0,0 l/m 0 min 0 min 0 W/m 22,5 km/h (4 Bft) 100,00 %
14.01.2019 01:32 5,6 C 4,4 C 3,9 C 95 % 1003,5 hPa 0,0 l/m 0 min 2 min 0 W/m 16,1 km/h (3 Bft) 100,00 %
14.01.2019 01:34 5,6 C 4,4 C 3,9 C 95 % 1003,5 hPa 0,0 l/m 0 min 2 min 0 W/m 25,7 km/h (4 Bft) 97,87 %
14.01.2019 01:36 5,6 C 4,4 C 3,9 C 95 % 1003,5 hPa 0,0 l/m 0 min 2 min 0 W/m 22,5 km/h (4 Bft) 100,00 %
14.01.2019 01:38 5,6 C 4,4 C 3,9 C 95 % 1003,5 hPa 0,0 l/m 0 min 2 min 0 W/m 25,7 km/h (4 Bft) 100,00 %
14.01.2019 01:40 5,6 C 4,4 C 3,9 C 95 % 1003,5 hPa 0,0 l/m 0 min 2 min 0 W/m 22,5 km/h (4 Bft) 97,83 %
14.01.2019 01:42 5,6 C 4,4 C 3,9 C 95 % 1003,4 hPa 0,0 l/m 0 min 2 min 0 W/m 19,3 km/h (3 Bft) 100,00 %
14.01.2019 01:44 5,6 C 4,4 C 3,9 C 95 % 1003,5 hPa 0,0 l/m 0 min 2 min 0 W/m 22,5 km/h (4 Bft) 100,00 %
14.01.2019 01:46 5,6 C 4,4 C 3,9 C 95 % 1003,5 hPa 0,0 l/m 0 min 2 min 0 W/m 16,1 km/h (3 Bft) 100,00 %
14.01.2019 01:48 5,5 C 4,4 C 3,9 C 95 % 1003,6 hPa 0,0 l/m 0 min 2 min 0 W/m 12,9 km/h (3 Bft) 100,00 %
14.01.2019 01:50 5,5 C 4,4 C 3,9 C 95 % 1003,7 hPa 0,0 l/m 0 min 2 min 0 W/m 19,3 km/h (3 Bft) 100,00 %
14.01.2019 01:52 5,5 C 4,4 C 3,9 C 95 % 1003,7 hPa 0,0 l/m 0 min 2 min 0 W/m 16,1 km/h (3 Bft) 97,87 %
14.01.2019 01:54 5,5 C 4,4 C 3,9 C 95 % 1003,7 hPa 0,0 l/m 0 min 2 min 0 W/m 22,5 km/h (4 Bft) 100,00 %
14.01.2019 01:56 5,5 C 4,4 C 3,9 C 95 % 1003,8 hPa 0,0 l/m 0 min 2 min 0 W/m 12,9 km/h (3 Bft) 100,00 %
14.01.2019 01:58 5,4 C 4,4 C 3,9 C 95 % 1003,8 hPa 0,0 l/m 0 min 2 min 0 W/m 12,9 km/h (3 Bft) 100,00 %
14.01.2019 02:00 5,4 C 4,4 C 3,9 C 95 % 1003,8 hPa 0,0 l/m 0 min 2 min 0 W/m 12,9 km/h (3 Bft) 100,00 %
14.01.2019 02:02 5,4 C 4,4 C 3,9 C 95 % 1003,9 hPa 0,0 l/m 0 min 2 min 0 W/m 16,1 km/h (3 Bft) 100,00 %
14.01.2019 02:04 5,4 C 4,4 C 3,9 C 95 % 1003,8 hPa 0,0 l/m 0 min 0 min 0 W/m 12,9 km/h (3 Bft) 100,00 %
14.01.2019 02:06 5,4 C 4,4 C 3,9 C 95 % 1003,8 hPa 0,0 l/m 0 min 0 min 0 W/m 12,9 km/h (3 Bft) 98,31 %
14.01.2019 02:08 5,4 C 4,4 C 3,9 C 95 % 1003,7 hPa 0,0 l/m 0 min 0 min 0 W/m 12,9 km/h (3 Bft) 100,00 %
14.01.2019 02:10 5,4 C 4,4 C 3,9 C 95 % 1003,7 hPa 0,0 l/m 0 min 0 min 0 W/m 16,1 km/h (3 Bft) 100,00 %
14.01.2019 02:12 5,3 C 4,4 C 3,9 C 95 % 1003,7 hPa 0,0 l/m 0 min 0 min 0 W/m 19,3 km/h (3 Bft) 100,00 %
14.01.2019 02:14 5,3 C 4,4 C 3,9 C 95 % 1003,8 hPa 0,0 l/m 0 min 0 min 0 W/m 12,9 km/h (3 Bft) 97,83 %
14.01.2019 02:16 5,3 C 4,4 C 3,9 C 95 % 1003,8 hPa 0,0 l/m 0 min 0 min 0 W/m 12,9 km/h (3 Bft) 97,87 %
14.01.2019 02:18 5,3 C 4,4 C 3,9 C 96 % 1003,8 hPa 0,0 l/m 0 min 0 min 0 W/m 16,1 km/h (3 Bft) 100,00 %
14.01.2019 02:20 5,3 C 4,4 C 3,9 C 96 % 1004,0 hPa 0,0 l/m 0 min 0 min 0 W/m 19,3 km/h (3 Bft) 97,87 %
14.01.2019 02:22 5,3 C 4,4 C 3,9 C 96 % 1004,0 hPa 0,0 l/m 0 min 0 min 0 W/m 12,9 km/h (3 Bft) 95,74 %
14.01.2019 02:24 5,3 C 4,4 C 3,9 C 96 % 1003,9 hPa 0,0 l/m 0 min 0 min 0 W/m 16,1 km/h (3 Bft) 97,87 %
14.01.2019 02:26 5,3 C 4,4 C 3,9 C 96 % 1004,0 hPa 0,0 l/m 0 min 0 min 0 W/m 16,1 km/h (3 Bft) 97,83 %
14.01.2019 02:28 5,3 C 5,0 C 3,9 C 96 % 1004,1 hPa 0,0 l/m 0 min 0 min 0 W/m 29,0 km/h (5 Bft) 100,00 %
14.01.2019 02:30 5,4 C 5,0 C 3,9 C 96 % 1004,1 hPa 0,0 l/m 0 min 2 min 0 W/m 16,1 km/h (3 Bft) 100,00 %
14.01.2019 02:32 5,4 C 5,0 C 3,9 C 96 % 1004,1 hPa 0,0 l/m 0 min 2 min 0 W/m 16,1 km/h (3 Bft) 97,87 %
14.01.2019 02:34 5,4 C 5,0 C 3,9 C 96 % 1004,2 hPa 0,0 l/m 0 min 2 min 0 W/m 12,9 km/h (3 Bft) 97,87 %
14.01.2019 02:36 5,5 C 5,0 C 4,4 C 96 % 1004,3 hPa 0,0 l/m 0 min 2 min 0 W/m 12,9 km/h (3 Bft) 97,87 %
14.01.2019 02:38 5,6 C 5,0 C 4,4 C 96 % 1004,2 hPa 0,0 l/m 0 min 2 min 0 W/m 12,9 km/h (3 Bft) 97,83 %
14.01.2019 02:40 5,6 C 5,0 C 4,4 C 96 % 1004,3 hPa 0,0 l/m 0 min 2 min 0 W/m 12,9 km/h (3 Bft) 97,87 %
14.01.2019 02:42 5,6 C 5,0 C 4,4 C 96 % 1004,3 hPa 0,2 l/m 0 min 2 min 0 W/m 19,3 km/h (3 Bft) 97,87 %
14.01.2019 02:44 5,7 C 5,0 C 4,4 C 96 % 1004,3 hPa 0,0 l/m 0 min 2 min 0 W/m 12,9 km/h (3 Bft) 95,74 %
14.01.2019 02:46 5,7 C 5,0 C 4,4 C 96 % 1004,3 hPa 0,0 l/m 0 min 2 min 0 W/m 12,9 km/h (3 Bft) 95,74 %
14.01.2019 02:48 5,7 C 5,0 C 4,4 C 96 % 1004,3 hPa 0,2 l/m 0 min 2 min 0 W/m 12,9 km/h (3 Bft) 95,74 %
14.01.2019 02:50 5,7 C 5,0 C 4,4 C 96 % 1004,3 hPa 0,0 l/m 0 min 2 min 0 W/m 12,9 km/h (3 Bft) 95,65 %
14.01.2019 02:52 5,7 C 5,0 C 4,4 C 96 % 1004,3 hPa 0,0 l/m 0 min 2 min 0 W/m 19,3 km/h (3 Bft) 93,62 %
14.01.2019 02:54 5,7 C 5,0 C 4,4 C 96 % 1004,3 hPa 0,0 l/m 0 min 0 min 0 W/m 12,9 km/h (3 Bft) 95,74 %
14.01.2019 02:56 5,7 C 5,0 C 4,4 C 96 % 1004,3 hPa 0,0 l/m 0 min 0 min 0 W/m 19,3 km/h (3 Bft) 95,74 %
14.01.2019 02:58 5,7 C 5,0 C 4,4 C 96 % 1004,4 hPa 0,0 l/m 0 min 0 min 0 W/m 12,9 km/h (3 Bft) 95,74 %
14.01.2019 03:00 5,7 C 5,0 C 4,4 C 96 % 1004,4 hPa 0,0 l/m 0 min 0 min 0 W/m 16,1 km/h (3 Bft) 95,74 %
14.01.2019 03:02 5,7 C 4,4 C 3,9 C 96 % 1004,4 hPa 0,0 l/m 0 min 0 min 0 W/m 12,9 km/h (3 Bft) 93,48 %
14.01.2019 03:04 5,7 C 5,0 C 3,9 C 96 % 1004,5 hPa 0,0 l/m 0 min 0 min 0 W/m 22,5 km/h (4 Bft) 95,74 %
14.01.2019 03:06 5,7 C 5,0 C 4,4 C 96 % 1004,5 hPa 0,0 l/m 0 min 2 min 0 W/m 16,1 km/h (3 Bft) 95,74 %
14.01.2019 03:08 5,7 C 5,0 C 4,4 C 96 % 1004,6 hPa 0,0 l/m 0 min 2 min 0 W/m 22,5 km/h (4 Bft) 93,62 %
14.01.2019 03:10 5,7 C 5,0 C 4,4 C 96 % 1004,6 hPa 0,0 l/m 0 min 0 min 0 W/m 19,3 km/h (3 Bft) 95,74 %
14.01.2019 03:12 5,7 C 5,0 C 4,4 C 96 % 1004,6 hPa 0,0 l/m 0 min 0 min 0 W/m 12,9 km/h (3 Bft) 95,65 %
14.01.2019 03:14 5,7 C 5,0 C 4,4 C 96 % 1004,7 hPa 0,0 l/m 0 min 2 min 0 W/m 12,9 km/h (3 Bft) 95,74 %
14.01.2019 03:16 5,7 C 5,0 C 4,4 C 96 % 1004,7 hPa 0,0 l/m 0 min 2 min 0 W/m 16,1 km/h (3 Bft) 95,74 %
14.01.2019 03:18 5,7 C 5,0 C 4,4 C 96 % 1004,8 hPa 0,0 l/m 0 min 2 min 0 W/m 12,9 km/h (3 Bft) 95,74 %
14.01.2019 03:20 5,7 C 5,0 C 4,4 C 96 % 1004,8 hPa 0,2 l/m 0 min 2 min 0 W/m 16,1 km/h (3 Bft) 95,74 %
14.01.2019 03:22 5,7 C 5,0 C 4,4 C 96 % 1004,8 hPa 0,0 l/m 0 min 2 min 0 W/m 12,9 km/h (3 Bft) 95,74 %
14.01.2019 03:24 5,7 C 5,0 C 4,4 C 96 % 1004,8 hPa 0,0 l/m 0 min 2 min 0 W/m 9,7 km/h (2 Bft) 97,83 %
14.01.2019 03:26 5,7 C 5,0 C 4,4 C 96 % 1004,8 hPa 0,0 l/m 0 min 2 min 0 W/m 9,7 km/h (2 Bft) 95,74 %
14.01.2019 03:28 5,8 C 5,0 C 4,4 C 96 % 1004,8 hPa 0,0 l/m 0 min 2 min 0 W/m 19,3 km/h (3 Bft) 100,00 %
14.01.2019 03:30 5,8 C 5,0 C 4,4 C 96 % 1004,7 hPa 0,0 l/m 0 min 2 min 0 W/m 16,1 km/h (3 Bft) 100,00 %
14.01.2019 03:32 5,8 C 5,0 C 4,4 C 96 % 1004,8 hPa 0,0 l/m 0 min 2 min 0 W/m 12,9 km/h (3 Bft) 100,00 %
14.01.2019 03:34 5,8 C 5,0 C 4,4 C 96 % 1004,9 hPa 0,0 l/m 0 min 2 min 0 W/m 16,1 km/h (3 Bft) 97,87 %
14.01.2019 03:36 5,8 C 5,0 C 4,4 C 96 % 1004,9 hPa 0,0 l/m 0 min 2 min 0 W/m 19,3 km/h (3 Bft) 94,83 %
14.01.2019 03:38 5,8 C 5,0 C 4,4 C 96 % 1004,9 hPa 0,0 l/m 0 min 2 min 0 W/m 25,7 km/h (4 Bft) 97,14 %
14.01.2019 03:40 5,8 C 5,0 C 4,4 C 97 % 1004,9 hPa 0,0 l/m 0 min 0 min 0 W/m 22,5 km/h (4 Bft) 97,87 %
14.01.2019 03:42 5,8 C 5,0 C 4,4 C 97 % 1005,0 hPa 0,0 l/m 0 min 0 min 0 W/m 32,2 km/h (5 Bft) 97,87 %
14.01.2019 03:44 5,8 C 5,0 C 4,4 C 97 % 1005,1 hPa 0,0 l/m 0 min 0 min 0 W/m 22,5 km/h (4 Bft) 97,87 %
14.01.2019 03:46 5,8 C 5,0 C 4,4 C 97 % 1005,2 hPa 0,0 l/m 0 min 0 min 0 W/m 19,3 km/h (3 Bft) 97,87 %
14.01.2019 03:48 5,8 C 5,0 C 4,4 C 97 % 1005,1 hPa 0,0 l/m 0 min 0 min 0 W/m 25,7 km/h (4 Bft) 97,83 %
14.01.2019 03:50 5,8 C 5,0 C 4,4 C 97 % 1005,2 hPa 0,0 l/m 0 min 0 min 0 W/m 19,3 km/h (3 Bft) 95,74 %
14.01.2019 03:52 5,8 C 5,0 C 4,4 C 97 % 1005,3 hPa 0,0 l/m 0 min 0 min 0 W/m 16,1 km/h (3 Bft) 97,87 %
14.01.2019 03:54 5,8 C 5,0 C 4,4 C 97 % 1005,4 hPa 0,0 l/m 0 min 0 min 0 W/m 19,3 km/h (3 Bft) 97,87 %
14.01.2019 03:56 5,8 C 5,0 C 4,4 C 97 % 1005,2 hPa 0,0 l/m 0 min 0 min 0 W/m 16,1 km/h (3 Bft) 95,74 %
14.01.2019 03:58 5,8 C 5,0 C 4,4 C 97 % 1005,3 hPa 0,0 l/m 0 min 0 min 0 W/m 19,3 km/h (3 Bft) 95,74 %
14.01.2019 04:00 5,8 C 5,0 C 4,4 C 97 % 1005,3 hPa 0,0 l/m 0 min 0 min 0 W/m 16,1 km/h (3 Bft) 97,83 %
14.01.2019 04:05 5,8 C 5,0 C 4,4 C 96 % 1005,4 hPa 0,0 l/m 0 min 0 min 0 W/m 32,2 km/h (5 Bft) 98,73 %
14.01.2019 04:06 5,8 C 5,0 C 4,4 C 96 % 1005,4 hPa 0,0 l/m 0 min 0 min 0 W/m 29,0 km/h (5 Bft) 100,00 %
14.01.2019 04:08 5,8 C 5,0 C 4,4 C 96 % 1005,4 hPa 0,0 l/m 0 min 0 min 0 W/m 19,3 km/h (3 Bft) 100,00 %
14.01.2019 04:10 5,8 C 5,0 C 4,4 C 96 % 1005,4 hPa 0,0 l/m 0 min 0 min 0 W/m 22,5 km/h (4 Bft) 100,00 %
14.01.2019 04:12 5,8 C 5,0 C 4,4 C 96 % 1005,4 hPa 0,0 l/m 0 min 0 min 0 W/m 22,5 km/h (4 Bft) 100,00 %
14.01.2019 04:14 5,8 C 5,0 C 4,4 C 96 % 1005,3 hPa 0,0 l/m 0 min 0 min 0 W/m 16,1 km/h (3 Bft) 100,00 %
14.01.2019 04:16 5,8 C 5,0 C 4,4 C 96 % 1005,3 hPa 0,0 l/m 0 min 0 min 0 W/m 16,1 km/h (3 Bft) 100,00 %
14.01.2019 04:18 5,8 C 5,0 C 4,4 C 96 % 1005,5 hPa 0,0 l/m 0 min 0 min 0 W/m 19,3 km/h (3 Bft) 100,00 %
14.01.2019 04:20 5,8 C 5,0 C 4,4 C 96 % 1005,6 hPa 0,0 l/m 0 min 0 min 0 W/m 19,3 km/h (3 Bft) 95,74 %
14.01.2019 04:22 5,8 C 5,0 C 4,4 C 96 % 1005,5 hPa 0,0 l/m 0 min 0 min 0 W/m 19,3 km/h (3 Bft) 97,83 %
14.01.2019 04:24 5,8 C 5,0 C 4,4 C 96 % 1005,5 hPa 0,0 l/m 0 min 0 min 0 W/m 22,5 km/h (4 Bft) 100,00 %
14.01.2019 04:26 5,7 C 5,0 C 4,4 C 96 % 1005,5 hPa 0,0 l/m 0 min 0 min 0 W/m 16,1 km/h (3 Bft) 100,00 %
14.01.2019 04:28 5,7 C 5,0 C 4,4 C 96 % 1005,5 hPa 0,0 l/m 0 min 0 min 0 W/m 12,9 km/h (3 Bft) 100,00 %
14.01.2019 04:30 5,7 C 5,0 C 4,4 C 96 % 1005,6 hPa 0,0 l/m 0 min 0 min 0 W/m 12,9 km/h (3 Bft) 97,87 %
14.01.2019 04:32 5,7 C 5,0 C 4,4 C 96 % 1005,6 hPa 0,0 l/m 0 min 0 min 0 W/m 25,7 km/h (4 Bft) 100,00 %
14.01.2019 04:34 5,7 C 5,0 C 4,4 C 96 % 1005,7 hPa 0,0 l/m 0 min 0 min 0 W/m 16,1 km/h (3 Bft) 100,00 %
14.01.2019 04:36 5,7 C 5,0 C 4,4 C 96 % 1005,7 hPa 0,0 l/m 0 min 0 min 0 W/m 19,3 km/h (3 Bft) 97,87 %
14.01.2019 04:38 5,7 C 5,0 C 4,4 C 96 % 1005,6 hPa 0,0 l/m 0 min 0 min 0 W/m 19,3 km/h (3 Bft) 100,00 %
14.01.2019 04:40 5,7 C 5,0 C 4,4 C 96 % 1005,6 hPa 0,0 l/m 0 min 0 min 0 W/m 19,3 km/h (3 Bft) 97,87 %
14.01.2019 04:42 5,7 C 5,0 C 4,4 C 96 % 1005,6 hPa 0,0 l/m 0 min 0 min 0 W/m 12,9 km/h (3 Bft) 100,00 %
14.01.2019 04:44 5,7 C 5,0 C 3,9 C 96 % 1005,7 hPa 0,0 l/m 0 min 0 min 0 W/m 16,1 km/h (3 Bft) 100,00 %
14.01.2019 04:46 5,7 C 4,4 C 3,9 C 96 % 1005,6 hPa 0,0 l/m 0 min 0 min 0 W/m 19,3 km/h (3 Bft) 100,00 %
14.01.2019 04:48 5,7 C 5,0 C 3,9 C 96 % 1005,7 hPa 0,0 l/m 0 min 0 min 0 W/m 16,1 km/h (3 Bft) 100,00 %
14.01.2019 04:50 5,7 C 5,0 C 3,9 C 96 % 1005,7 hPa 0,0 l/m 0 min 0 min 0 W/m 19,3 km/h (3 Bft) 100,00 %
14.01.2019 04:52 5,7 C 4,4 C 3,9 C 96 % 1005,7 hPa 0,0 l/m 0 min 0 min 0 W/m 19,3 km/h (3 Bft) 97,87 %
14.01.2019 04:54 5,6 C 4,4 C 3,9 C 96 % 1005,6 hPa 0,0 l/m 0 min 0 min 0 W/m 16,1 km/h (3 Bft) 100,00 %
14.01.2019 04:56 5,6 C 4,4 C 3,9 C 96 % 1005,9 hPa 0,0 l/m 0 min 0 min 0 W/m 16,1 km/h (3 Bft) 100,00 %
14.01.2019 04:58 5,6 C 4,4 C 3,9 C 96 % 1005,9 hPa 0,0 l/m 0 min 0 min 0 W/m 22,5 km/h (4 Bft) 100,00 %
14.01.2019 05:00 5,6 C 4,4 C 3,9 C 96 % 1005,9 hPa 0,0 l/m 0 min 0 min 0 W/m 12,9 km/h (3 Bft) 97,87 %
14.01.2019 05:02 5,6 C 4,4 C 3,9 C 96 % 1005,9 hPa 0,0 l/m 0 min 0 min 0 W/m 19,3 km/h (3 Bft) 97,87 %
14.01.2019 05:04 5,5 C 4,4 C 3,9 C 95 % 1006,0 hPa 0,0 l/m 0 min 0 min 0 W/m 16,1 km/h (3 Bft) 97,87 %
14.01.2019 05:06 5,5 C 4,4 C 3,9 C 96 % 1006,0 hPa 0,0 l/m 0 min 0 min 0 W/m 16,1 km/h (3 Bft) 95,74 %
14.01.2019 05:08 5,4 C 4,4 C 3,9 C 95 % 1005,9 hPa 0,0 l/m 0 min 0 min 0 W/m 12,9 km/h (3 Bft) 97,83 %
14.01.2019 05:10 5,4 C 4,4 C 3,9 C 95 % 1005,9 hPa 0,0 l/m 0 min 0 min 0 W/m 19,3 km/h (3 Bft) 97,87 %
14.01.2019 05:12 5,4 C 4,4 C 3,9 C 95 % 1006,0 hPa 0,0 l/m 0 min 0 min 0 W/m 9,7 km/h (2 Bft) 97,87 %
14.01.2019 05:14 5,4 C 4,4 C 3,9 C 95 % 1006,0 hPa 0,0 l/m 0 min 0 min 0 W/m 16,1 km/h (3 Bft) 100,00 %
14.01.2019 05:19 5,4 C 4,4 C 3,9 C 95 % 1006,0 hPa 0,0 l/m 0 min 0 min 0 W/m 19,3 km/h (3 Bft) 95,00 %
14.01.2019 05:20 5,3 C 4,4 C 3,9 C 95 % 1006,0 hPa 0,0 l/m 0 min 0 min 0 W/m 9,7 km/h (2 Bft) 90,91 %
14.01.2019 05:22 5,3 C 4,4 C 3,9 C 95 % 1006,2 hPa 0,0 l/m 0 min 0 min 0 W/m 12,9 km/h (3 Bft) 95,74 %
14.01.2019 05:24 5,3 C 4,4 C 3,9 C 95 % 1006,2 hPa 0,0 l/m 0 min 0 min 0 W/m 12,9 km/h (3 Bft) 93,62 %
14.01.2019 05:26 5,3 C 4,4 C 3,9 C 95 % 1006,3 hPa 0,0 l/m 0 min 0 min 0 W/m 12,9 km/h (3 Bft) 95,74 %
14.01.2019 05:28 5,3 C 4,4 C 3,9 C 95 % 1006,2 hPa 0,0 l/m 0 min 0 min 0 W/m 22,5 km/h (4 Bft) 93,62 %
14.01.2019 05:30 5,3 C 4,4 C 3,9 C 95 % 1006,2 hPa 0,0 l/m 0 min 0 min 0 W/m 12,9 km/h (3 Bft) 95,74 %
14.01.2019 05:32 5,3 C 4,4 C 3,9 C 95 % 1006,2 hPa 0,0 l/m 0 min 0 min 0 W/m 19,3 km/h (3 Bft) 95,65 %
14.01.2019 05:34 5,3 C 4,4 C 3,9 C 95 % 1006,2 hPa 0,0 l/m 0 min 0 min 0 W/m 22,5 km/h (4 Bft) 95,74 %
14.01.2019 05:36 5,3 C 4,4 C 3,9 C 95 % 1006,3 hPa 0,0 l/m 0 min 0 min 0 W/m 16,1 km/h (3 Bft) 93,62 %
14.01.2019 05:38 5,3 C 4,4 C 3,9 C 95 % 1006,2 hPa 0,0 l/m 0 min 0 min 0 W/m 16,1 km/h (3 Bft) 95,74 %
14.01.2019 05:40 5,3 C 4,4 C 3,9 C 95 % 1006,3 hPa 0,0 l/m 0 min 0 min 0 W/m 16,1 km/h (3 Bft) 95,74 %
14.01.2019 05:42 5,3 C 4,4 C 3,9 C 95 % 1006,3 hPa 0,0 l/m 0 min 0 min 0 W/m 16,1 km/h (3 Bft) 95,74 %
14.01.2019 05:44 5,3 C 4,4 C 3,9 C 95 % 1006,3 hPa 0,0 l/m 0 min 0 min 0 W/m 12,9 km/h (3 Bft) 91,30 %
14.01.2019 05:46 5,3 C 4,4 C 3,9 C 95 % 1006,3 hPa 0,0 l/m 0 min 0 min 0 W/m 19,3 km/h (3 Bft) 95,74 %
14.01.2019 05:48 5,3 C 4,4 C 3,9 C 95 % 1006,3 hPa 0,0 l/m 0 min 0 min 0 W/m 16,1 km/h (3 Bft) 93,62 %
14.01.2019 05:50 5,2 C 4,4 C 3,9 C 95 % 1006,3 hPa 0,0 l/m 0 min 0 min 0 W/m 25,7 km/h (4 Bft) 95,74 %
14.01.2019 05:52 5,3 C 4,4 C 3,9 C 95 % 1006,3 hPa 0,0 l/m 0 min 0 min 0 W/m 19,3 km/h (3 Bft) 97,87 %
14.01.2019 05:54 5,3 C 4,4 C 3,9 C 95 % 1006,4 hPa 0,0 l/m 0 min 0 min 0 W/m 19,3 km/h (3 Bft) 95,74 %
14.01.2019 05:56 5,3 C 4,4 C 3,9 C 95 % 1006,3 hPa 0,0 l/m 0 min 0 min 0 W/m 16,1 km/h (3 Bft) 93,48 %
14.01.2019 05:58 5,3 C 4,4 C 3,9 C 95 % 1006,3 hPa 0,0 l/m 0 min 0 min 0 W/m 12,9 km/h (3 Bft) 95,74 %
14.01.2019 06:00 5,3 C 4,4 C 3,9 C 95 % 1006,3 hPa 0,0 l/m 0 min 0 min 0 W/m 12,9 km/h (3 Bft) 95,74 %
14.01.2019 06:02 5,3 C 4,4 C 3,9 C 95 % 1006,4 hPa 0,0 l/m 0 min 0 min 0 W/m 19,3 km/h (3 Bft) 97,87 %
14.01.2019 06:04 5,3 C 4,4 C 3,9 C 95 % 1006,5 hPa 0,0 l/m 0 min 0 min 0 W/m 22,5 km/h (4 Bft) 100,00 %
14.01.2019 06:08 5,3 C 4,4 C 3,9 C 95 % 1006,6 hPa 0,0 l/m 0 min 0 min 0 W/m 16,1 km/h (3 Bft) 100,00 %
14.01.2019 06:10 5,3 C 4,4 C 3,9 C 95 % 1006,5 hPa 0,0 l/m 0 min 0 min 0 W/m 19,3 km/h (3 Bft) 100,00 %
14.01.2019 06:12 5,4 C 4,4 C 3,9 C 95 % 1006,5 hPa 0,0 l/m 0 min 0 min 0 W/m 12,9 km/h (3 Bft) 100,00 %
14.01.2019 06:14 5,4 C 4,4 C 3,9 C 95 % 1006,6 hPa 0,0 l/m 0 min 0 min 0 W/m 16,1 km/h (3 Bft) 100,00 %
14.01.2019 06:16 5,4 C 4,4 C 3,9 C 95 % 1006,5 hPa 0,0 l/m 0 min 0 min 0 W/m 16,1 km/h (3 Bft) 100,00 %
14.01.2019 06:18 5,4 C 4,4 C 3,9 C 95 % 1006,6 hPa 0,0 l/m 0 min 0 min 0 W/m 12,9 km/h (3 Bft) 100,00 %
14.01.2019 06:20 5,4 C 4,4 C 3,9 C 95 % 1006,6 hPa 0,0 l/m 0 min 0 min 0 W/m 12,9 km/h (3 Bft) 100,00 %
14.01.2019 06:22 5,4 C 4,4 C 3,9 C 95 % 1006,5 hPa 0,0 l/m 0 min 0 min 0 W/m 12,9 km/h (3 Bft) 97,87 %
14.01.2019 06:24 5,4 C 4,4 C 3,9 C 95 % 1006,6 hPa 0,0 l/m 0 min 0 min 0 W/m 12,9 km/h (3 Bft) 100,00 %
14.01.2019 06:26 5,4 C 4,4 C 3,9 C 95 % 1006,7 hPa 0,0 l/m 0 min 0 min 0 W/m 9,7 km/h (2 Bft) 100,00 %
14.01.2019 06:28 5,4 C 4,4 C 3,9 C 95 % 1006,7 hPa 0,0 l/m 0 min 2 min 0 W/m 9,7 km/h (2 Bft) 100,00 %
14.01.2019 06:30 5,4 C 4,4 C 3,9 C 95 % 1006,7 hPa 0,0 l/m 0 min 2 min 0 W/m 19,3 km/h (3 Bft) 100,00 %
14.01.2019 06:32 5,4 C 4,4 C 3,9 C 95 % 1006,7 hPa 0,0 l/m 0 min 2 min 0 W/m 9,7 km/h (2 Bft) 100,00 %
14.01.2019 06:34 5,4 C 4,4 C 3,9 C 95 % 1006,7 hPa 0,0 l/m 0 min 2 min 0 W/m 12,9 km/h (3 Bft) 97,87 %
14.01.2019 06:36 5,5 C 4,4 C 3,9 C 95 % 1006,7 hPa 0,0 l/m 0 min 2 min 0 W/m 12,9 km/h (3 Bft) 100,00 %
14.01.2019 06:38 5,4 C 4,4 C 3,9 C 95 % 1006,7 hPa 0,0 l/m 0 min 2 min 0 W/m 12,9 km/h (3 Bft) 100,00 %
14.01.2019 06:40 5,5 C 4,4 C 3,9 C 95 % 1006,8 hPa 0,0 l/m 0 min 2 min 0 W/m 12,9 km/h (3 Bft) 100,00 %
14.01.2019 06:42 5,5 C 4,4 C 3,9 C 96 % 1006,7 hPa 0,0 l/m 0 min 2 min 0 W/m 19,3 km/h (3 Bft) 100,00 %
14.01.2019 06:44 5,5 C 4,4 C 3,9 C 96 % 1006,8 hPa 0,0 l/m 0 min 2 min 0 W/m 16,1 km/h (3 Bft) 97,87 %
14.01.2019 06:46 5,5 C 4,4 C 3,9 C 96 % 1006,9 hPa 0,0 l/m 0 min 2 min 0 W/m 16,1 km/h (3 Bft) 97,87 %
14.01.2019 06:48 5,5 C 4,4 C 3,9 C 96 % 1006,9 hPa 0,0 l/m 0 min 2 min 0 W/m 16,1 km/h (3 Bft) 97,87 %
14.01.2019 06:50 5,5 C 4,4 C 3,9 C 96 % 1007,0 hPa 0,0 l/m 0 min 2 min 0 W/m 16,1 km/h (3 Bft) 100,00 %
14.01.2019 06:52 5,5 C 4,4 C 3,9 C 96 % 1007,0 hPa 0,0 l/m 0 min 2 min 0 W/m 12,9 km/h (3 Bft) 97,87 %
14.01.2019 06:54 5,5 C 4,4 C 3,9 C 96 % 1007,1 hPa 0,2 l/m 0 min 2 min 0 W/m 12,9 km/h (3 Bft) 100,00 %
14.01.2019 06:56 5,5 C 4,4 C 3,9 C 96 % 1007,1 hPa 0,0 l/m 0 min 2 min 0 W/m 12,9 km/h (3 Bft) 95,74 %
14.01.2019 06:58 5,5 C 4,4 C 3,9 C 96 % 1007,1 hPa 0,0 l/m 0 min 2 min 0 W/m 16,1 km/h (3 Bft) 97,87 %
14.01.2019 07:00 5,5 C 4,4 C 3,9 C 96 % 1007,1 hPa 0,0 l/m 0 min 2 min 0 W/m 22,5 km/h (4 Bft) 97,87 %
14.01.2019 07:02 5,5 C 4,4 C 3,9 C 96 % 1007,1 hPa 0,0 l/m 0 min 2 min 0 W/m 12,9 km/h (3 Bft) 97,87 %
14.01.2019 07:04 5,5 C 4,4 C 3,9 C 96 % 1007,1 hPa 0,0 l/m 0 min 2 min 0 W/m 16,1 km/h (3 Bft) 97,87 %
14.01.2019 07:06 5,5 C 4,4 C 3,9 C 96 % 1007,1 hPa 0,0 l/m 0 min 2 min 0 W/m 16,1 km/h (3 Bft) 95,65 %
14.01.2019 07:08 5,4 C 4,4 C 3,9 C 96 % 1007,0 hPa 0,0 l/m 0 min 2 min 0 W/m 12,9 km/h (3 Bft) 97,87 %
14.01.2019 07:10 5,4 C 4,4 C 3,9 C 96 % 1007,1 hPa 0,0 l/m 0 min 2 min 0 W/m 12,9 km/h (3 Bft) 97,87 %
14.01.2019 07:12 5,4 C 4,4 C 3,9 C 96 % 1007,1 hPa 0,0 l/m 0 min 2 min 0 W/m 12,9 km/h (3 Bft) 97,87 %
14.01.2019 07:14 5,4 C 4,4 C 3,9 C 96 % 1007,2 hPa 0,0 l/m 0 min 2 min 0 W/m 9,7 km/h (2 Bft) 97,87 %
14.01.2019 07:16 5,4 C 4,4 C 3,9 C 96 % 1007,3 hPa 0,0 l/m 0 min 2 min 0 W/m 12,9 km/h (3 Bft) 97,87 %
14.01.2019 07:18 5,4 C 4,4 C 3,9 C 96 % 1007,3 hPa 0,0 l/m 0 min 2 min 0 W/m 16,1 km/h (3 Bft) 97,83 %
14.01.2019 07:20 5,4 C 4,4 C 3,9 C 96 % 1007,3 hPa 0,0 l/m 0 min 2 min 0 W/m 19,3 km/h (3 Bft) 97,87 %
14.01.2019 07:22 5,4 C 4,4 C 3,9 C 96 % 1007,3 hPa 0,0 l/m 0 min 2 min 0 W/m 16,1 km/h (3 Bft) 97,87 %
14.01.2019 07:24 5,4 C 4,4 C 3,9 C 96 % 1007,3 hPa 0,0 l/m 0 min 2 min 0 W/m 12,9 km/h (3 Bft) 95,74 %
14.01.2019 07:26 5,4 C 4,4 C 3,9 C 96 % 1007,2 hPa 0,0 l/m 0 min 0 min 0 W/m 25,7 km/h (4 Bft) 97,87 %
14.01.2019 07:28 5,4 C 4,4 C 3,9 C 96 % 1007,2 hPa 0,0 l/m 0 min 2 min 0 W/m 16,1 km/h (3 Bft) 97,83 %
14.01.2019 07:30 5,4 C 4,4 C 3,9 C 96 % 1007,3 hPa 0,0 l/m 0 min 2 min 0 W/m 16,1 km/h (3 Bft) 95,74 %
14.01.2019 07:32 5,4 C 4,4 C 3,9 C 96 % 1007,2 hPa 0,0 l/m 0 min 2 min 0 W/m 9,7 km/h (2 Bft) 97,87 %
14.01.2019 07:34 5,4 C 4,4 C 3,9 C 96 % 1007,2 hPa 0,0 l/m 0 min 0 min 0 W/m 12,9 km/h (3 Bft) 97,87 %
14.01.2019 07:36 5,3 C 4,4 C 3,9 C 96 % 1007,2 hPa 0,0 l/m 0 min 0 min 0 W/m 9,7 km/h (2 Bft) 97,87 %
14.01.2019 07:38 5,3 C 4,4 C 3,9 C 96 % 1007,3 hPa 0,0 l/m 0 min 2 min 0 W/m 9,7 km/h (2 Bft) 97,87 %
14.01.2019 07:40 5,3 C 4,4 C 3,9 C 96 % 1007,3 hPa 0,0 l/m 0 min 2 min 0 W/m 16,1 km/h (3 Bft) 97,83 %
14.01.2019 07:42 5,3 C 4,4 C 3,9 C 96 % 1007,4 hPa 0,0 l/m 0 min 0 min 0 W/m 9,7 km/h (2 Bft) 95,74 %
14.01.2019 07:44 5,3 C 4,4 C 3,9 C 96 % 1007,5 hPa 0,0 l/m 0 min 0 min 0 W/m 12,9 km/h (3 Bft) 95,74 %
14.01.2019 07:46 5,3 C 4,4 C 3,9 C 96 % 1007,5 hPa 0,0 l/m 0 min 0 min 0 W/m 12,9 km/h (3 Bft) 95,74 %
14.01.2019 07:48 5,3 C 4,4 C 3,9 C 96 % 1007,5 hPa 0,0 l/m 0 min 2 min 0 W/m 16,1 km/h (3 Bft) 95,74 %
14.01.2019 07:50 5,3 C 4,4 C 3,9 C 96 % 1007,5 hPa 0,0 l/m 0 min 2 min 0 W/m 9,7 km/h (2 Bft) 95,74 %
14.01.2019 07:52 5,3 C 4,4 C 3,9 C 96 % 1007,6 hPa 0,0 l/m 0 min 2 min 0 W/m 16,1 km/h (3 Bft) 95,65 %
14.01.2019 07:54 5,3 C 4,4 C 3,9 C 96 % 1007,6 hPa 0,0 l/m 0 min 2 min 0 W/m 16,1 km/h (3 Bft) 95,74 %
14.01.2019 07:56 5,3 C 4,4 C 3,9 C 96 % 1007,7 hPa 0,0 l/m 0 min 2 min 0 W/m 16,1 km/h (3 Bft) 95,74 %
14.01.2019 07:58 5,3 C 4,4 C 3,9 C 96 % 1007,7 hPa 0,0 l/m 0 min 2 min 0 W/m 16,1 km/h (3 Bft) 93,62 %
14.01.2019 08:00 5,3 C 4,4 C 3,9 C 96 % 1007,8 hPa 0,0 l/m 0 min 2 min 0 W/m 12,9 km/h (3 Bft) 97,87 %
14.01.2019 08:02 5,3 C 4,4 C 3,9 C 96 % 1007,8 hPa 0,0 l/m 0 min 2 min 0 W/m 12,9 km/h (3 Bft) 93,62 %
14.01.2019 08:04 5,3 C 4,4 C 3,9 C 96 % 1007,9 hPa 0,0 l/m 0 min 2 min 0 W/m 19,3 km/h (3 Bft) 89,13 %
14.01.2019 08:06 5,3 C 4,4 C 3,9 C 96 % 1007,9 hPa 0,0 l/m 0 min 2 min 0 W/m 19,3 km/h (3 Bft) 94,92 %
14.01.2019 08:08 5,3 C 4,4 C 3,9 C 96 % 1008,0 hPa 0,0 l/m 0 min 2 min 0 W/m 16,1 km/h (3 Bft) 94,44 %
14.01.2019 08:10 5,3 C 4,4 C 3,9 C 96 % 1008,0 hPa 0,0 l/m 0 min 2 min 0 W/m 12,9 km/h (3 Bft) 95,74 %
14.01.2019 08:12 5,3 C 4,4 C 3,9 C 96 % 1008,1 hPa 0,0 l/m 0 min 2 min 0 W/m 16,1 km/h (3 Bft) 95,74 %
14.01.2019 08:14 5,3 C 4,4 C 3,9 C 96 % 1008,1 hPa 0,0 l/m 0 min 2 min 0 W/m 35,4 km/h (5 Bft) 95,74 %
14.01.2019 08:16 5,3 C 4,4 C 3,9 C 96 % 1008,1 hPa 0,0 l/m 0 min 2 min 0 W/m 32,2 km/h (5 Bft) 93,48 %
14.01.2019 08:18 5,3 C 4,4 C 3,9 C 96 % 1008,2 hPa 0,0 l/m 0 min 2 min 0 W/m 22,5 km/h (4 Bft) 95,74 %
14.01.2019 08:20 5,3 C 4,4 C 3,9 C 96 % 1008,2 hPa 0,0 l/m 0 min 2 min 0 W/m 19,3 km/h (3 Bft) 93,62 %
14.01.2019 08:22 5,3 C 4,4 C 3,9 C 96 % 1008,2 hPa 0,0 l/m 0 min 2 min 0 W/m 16,1 km/h (3 Bft) 95,74 %
14.01.2019 08:24 5,3 C 4,4 C 3,9 C 97 % 1008,3 hPa 0,0 l/m 0 min 2 min 0 W/m 22,5 km/h (4 Bft) 95,74 %
14.01.2019 08:26 5,3 C 4,4 C 3,9 C 97 % 1008,2 hPa 0,0 l/m 0 min 2 min 0 W/m 22,5 km/h (4 Bft) 95,65 %
14.01.2019 08:28 5,3 C 4,4 C 3,9 C 97 % 1008,2 hPa 0,0 l/m 0 min 2 min 0 W/m 19,3 km/h (3 Bft) 95,74 %
14.01.2019 08:30 5,3 C 4,4 C 3,9 C 97 % 1008,2 hPa 0,0 l/m 0 min 2 min 0 W/m 9,7 km/h (2 Bft) 95,74 %
14.01.2019 08:32 5,3 C 4,4 C 3,9 C 97 % 1008,2 hPa 0,0 l/m 0 min 2 min 0 W/m 19,3 km/h (3 Bft) 95,74 %
14.01.2019 08:34 5,3 C 4,4 C 3,9 C 97 % 1008,4 hPa 0,0 l/m 0 min 2 min 0 W/m 19,3 km/h (3 Bft) 95,74 %
14.01.2019 08:36 5,3 C 4,4 C 3,9 C 97 % 1008,4 hPa 0,0 l/m 0 min 2 min 0 W/m 19,3 km/h (3 Bft) 97,87 %
14.01.2019 08:38 5,3 C 4,4 C 3,9 C 97 % 1008,5 hPa 0,0 l/m 0 min 2 min 0 W/m 12,9 km/h (3 Bft) 97,83 %
14.01.2019 08:40 5,3 C 4,4 C 3,9 C 97 % 1008,6 hPa 0,0 l/m 0 min 2 min 0 W/m 6,4 km/h (2 Bft) 93,62 %
14.01.2019 08:42 5,3 C 4,4 C 3,9 C 97 % 1008,5 hPa 0,0 l/m 0 min 2 min 0 W/m 9,7 km/h (2 Bft) 95,74 %
14.01.2019 08:44 5,3 C 4,4 C 3,9 C 97 % 1008,6 hPa 0,0 l/m 0 min 0 min 0 W/m 16,1 km/h (3 Bft) 95,74 %
14.01.2019 08:46 5,2 C 3,9 C 3,3 C 97 % 1008,7 hPa 0,0 l/m 0 min 0 min 0 W/m 9,7 km/h (2 Bft) 97,87 %
14.01.2019 08:48 5,2 C 3,9 C 3,3 C 97 % 1008,7 hPa 0,0 l/m 0 min 0 min 0 W/m 12,9 km/h (3 Bft) 97,96 %
14.01.2019 08:50 5,1 C 3,9 C 3,3 C 97 % 1008,8 hPa 0,0 l/m 0 min 2 min 0 W/m 12,9 km/h (3 Bft) 97,87 %
14.01.2019 08:52 5,1 C 3,9 C 3,3 C 96 % 1009,0 hPa 0,2 l/m 0 min 2 min 0 W/m 12,9 km/h (3 Bft) 97,87 %
14.01.2019 08:54 4,9 C 3,9 C 3,3 C 96 % 1009,0 hPa 0,0 l/m 0 min 2 min 4 W/m 29,0 km/h (5 Bft) 100,00 %
14.01.2019 08:56 4,9 C 3,3 C 3,3 C 96 % 1009,0 hPa 0,0 l/m 0 min 2 min 8 W/m 16,1 km/h (3 Bft) 100,00 %
14.01.2019 08:58 4,8 C 3,3 C 3,3 C 96 % 1009,0 hPa 0,2 l/m 0 min 2 min 11 W/m 22,5 km/h (4 Bft) 97,87 %
14.01.2019 09:00 4,8 C 3,3 C 3,3 C 96 % 1009,1 hPa 0,0 l/m 0 min 2 min 7 W/m 12,9 km/h (3 Bft) 97,87 %
14.01.2019 09:02 4,7 C 3,3 C 3,3 C 96 % 1009,3 hPa 0,0 l/m 0 min 2 min 1 W/m 9,7 km/h (2 Bft) 95,65 %
14.01.2019 09:04 4,7 C 3,3 C 3,3 C 96 % 1009,4 hPa 0,2 l/m 0 min 2 min 0 W/m 12,9 km/h (3 Bft) 100,00 %
14.01.2019 09:06 4,7 C 3,3 C 3,3 C 96 % 1009,5 hPa 0,2 l/m 0 min 2 min 0 W/m 22,5 km/h (4 Bft) 100,00 %
14.01.2019 09:08 4,6 C 3,3 C 3,3 C 96 % 1009,5 hPa 0,2 l/m 0 min 2 min 0 W/m 16,1 km/h (3 Bft) 100,00 %
14.01.2019 09:10 4,6 C 3,3 C 3,3 C 96 % 1009,5 hPa 0,0 l/m 0 min 2 min 0 W/m 22,5 km/h (4 Bft) 100,00 %
14.01.2019 09:12 4,6 C 3,3 C 3,3 C 96 % 1009,5 hPa 0,2 l/m 0 min 2 min 3 W/m 22,5 km/h (4 Bft) 100,00 %
14.01.2019 09:14 4,6 C 3,3 C 3,3 C 96 % 1009,6 hPa 0,2 l/m 0 min 2 min 7 W/m 16,1 km/h (3 Bft) 100,00 %
14.01.2019 09:16 4,5 C 3,3 C 3,3 C 96 % 1009,7 hPa 0,0 l/m 0 min 2 min 7 W/m 19,3 km/h (3 Bft) 100,00 %
14.01.2019 09:18 4,5 C 3,3 C 3,3 C 96 % 1009,7 hPa 0,2 l/m 0 min 2 min 6 W/m 12,9 km/h (3 Bft) 100,00 %
14.01.2019 09:20 4,4 C 3,3 C 2,8 C 96 % 1009,7 hPa 0,0 l/m 0 min 2 min 5 W/m 16,1 km/h (3 Bft) 97,87 %
14.01.2019 09:22 4,4 C 3,3 C 2,8 C 96 % 1009,7 hPa 0,2 l/m 0 min 2 min 6 W/m 16,1 km/h (3 Bft) 100,00 %
14.01.2019 09:24 4,4 C 3,3 C 3,3 C 96 % 1009,8 hPa 0,0 l/m 0 min 2 min 10 W/m 16,1 km/h (3 Bft) 100,00 %
14.01.2019 09:26 4,4 C 3,3 C 3,3 C 97 % 1009,8 hPa 0,0 l/m 0 min 2 min 16 W/m 16,1 km/h (3 Bft) 100,00 %
14.01.2019 09:28 4,4 C 3,3 C 3,3 C 97 % 1009,9 hPa 0,0 l/m 0 min 0 min 15 W/m 9,7 km/h (2 Bft) 100,00 %
14.01.2019 09:30 4,3 C 3,3 C 3,3 C 97 % 1009,9 hPa 0,0 l/m 0 min 2 min 8 W/m 16,1 km/h (3 Bft) 100,00 %
14.01.2019 09:32 4,3 C 3,3 C 3,3 C 97 % 1010,0 hPa 0,0 l/m 0 min 2 min 3 W/m 9,7 km/h (2 Bft) 100,00 %
14.01.2019 09:34 4,3 C 3,3 C 3,3 C 96 % 1010,0 hPa 0,2 l/m 0 min 2 min 5 W/m 16,1 km/h (3 Bft) 100,00 %
14.01.2019 09:36 4,3 C 3,3 C 3,3 C 97 % 1010,2 hPa 0,0 l/m 0 min 2 min 8 W/m 12,9 km/h (3 Bft) 100,00 %
14.01.2019 09:38 4,3 C 3,3 C 3,3 C 97 % 1010,3 hPa 0,0 l/m 0 min 2 min 9 W/m 19,3 km/h (3 Bft) 100,00 %
14.01.2019 09:40 4,3 C 3,3 C 3,3 C 97 % 1010,5 hPa 0,0 l/m 0 min 0 min 9 W/m 35,4 km/h (5 Bft) 95,74 %
14.01.2019 09:42 4,3 C 3,3 C 3,3 C 97 % 1010,6 hPa 0,0 l/m 0 min 0 min 12 W/m 41,8 km/h (6 Bft) 97,87 %
14.01.2019 09:44 4,3 C 3,3 C 2,8 C 97 % 1010,3 hPa 0,0 l/m 0 min 2 min 12 W/m 29,0 km/h (5 Bft) 97,87 %
14.01.2019 09:46 4,2 C 3,3 C 2,8 C 97 % 1010,3 hPa 0,0 l/m 0 min 0 min 13 W/m 25,7 km/h (4 Bft) 97,87 %
14.01.2019 09:48 4,2 C 2,8 C 2,8 C 97 % 1010,4 hPa 0,0 l/m 0 min 0 min 15 W/m 29,0 km/h (5 Bft) 100,00 %
14.01.2019 09:50 4,1 C 2,8 C 2,8 C 97 % 1010,4 hPa 0,0 l/m 0 min 0 min 17 W/m 22,5 km/h (4 Bft) 100,00 %
14.01.2019 09:52 4,1 C 2,8 C 2,8 C 96 % 1010,4 hPa 0,0 l/m 0 min 0 min 19 W/m 16,1 km/h (3 Bft) 100,00 %
14.01.2019 09:54 4,0 C 2,8 C 2,8 C 96 % 1010,4 hPa 0,0 l/m 0 min 0 min 24 W/m 19,3 km/h (3 Bft) 100,00 %
14.01.2019 09:56 3,9 C 2,8 C 2,8 C 96 % 1010,3 hPa 0,0 l/m 0 min 0 min 35 W/m 6,4 km/h (2 Bft) 100,00 %
14.01.2019 09:58 3,9 C 3,3 C 2,8 C 96 % 1010,4 hPa 0,0 l/m 0 min 0 min 48 W/m 16,1 km/h (3 Bft) 97,83 %
14.01.2019 10:00 3,9 C 3,3 C 2,8 C 96 % 1010,3 hPa 0,0 l/m 0 min 0 min 49 W/m 19,3 km/h (3 Bft) 97,87 %
14.01.2019 10:02 3,9 C 3,3 C 2,8 C 97 % 1010,4 hPa 0,0 l/m 0 min 0 min 55 W/m 16,1 km/h (3 Bft) 97,87 %
14.01.2019 10:04 3,9 C 3,3 C 2,8 C 97 % 1010,4 hPa 0,0 l/m 0 min 0 min 50 W/m 16,1 km/h (3 Bft) 100,00 %
14.01.2019 10:06 3,9 C 3,3 C 2,8 C 97 % 1010,5 hPa 0,0 l/m 0 min 0 min 48 W/m 12,9 km/h (3 Bft) 100,00 %
14.01.2019 10:08 3,9 C 3,3 C 2,8 C 97 % 1010,4 hPa 0,0 l/m 0 min 0 min 50 W/m 19,3 km/h (3 Bft) 100,00 %
14.01.2019 10:10 3,9 C 3,3 C 2,8 C 97 % 1010,4 hPa 0,0 l/m 0 min 0 min 69 W/m 19,3 km/h (3 Bft) 100,00 %
14.01.2019 10:12 3,9 C 3,9 C 3,3 C 97 % 1010,5 hPa 0,0 l/m 0 min 0 min 91 W/m 16,1 km/h (3 Bft) 100,00 %
14.01.2019 10:14 3,9 C 3,9 C 3,3 C 97 % 1010,5 hPa 0,0 l/m 0 min 0 min 93 W/m 22,5 km/h (4 Bft) 95,74 %
14.01.2019 10:16 3,9 C 4,4 C 3,3 C 97 % 1010,5 hPa 0,0 l/m 0 min 0 min 88 W/m 16,1 km/h (3 Bft) 97,87 %
14.01.2019 10:18 4,0 C 4,4 C 3,3 C 97 % 1010,5 hPa 0,0 l/m 0 min 0 min 86 W/m 12,9 km/h (3 Bft) 97,87 %
14.01.2019 10:20 4,0 C 4,4 C 3,3 C 97 % 1010,5 hPa 0,0 l/m 0 min 0 min 81 W/m 19,3 km/h (3 Bft) 95,65 %
14.01.2019 10:22 4,1 C 4,4 C 3,3 C 97 % 1010,5 hPa 0,0 l/m 0 min 0 min 65 W/m 9,7 km/h (2 Bft) 95,74 %
14.01.2019 10:24 4,1 C 5,0 C 3,3 C 97 % 1010,5 hPa 0,0 l/m 0 min 0 min 93 W/m 9,7 km/h (2 Bft) 91,49 %
14.01.2019 10:26 4,1 C 5,0 C 3,3 C 97 % 1010,6 hPa 0,0 l/m 0 min 0 min 80 W/m 16,1 km/h (3 Bft) 93,62 %
14.01.2019 10:28 4,1 C 4,4 C 2,8 C 97 % 1010,7 hPa 0,0 l/m 0 min 0 min 29 W/m 19,3 km/h (3 Bft) 93,62 %
14.01.2019 10:30 4,1 C 3,9 C 2,8 C 97 % 1010,6 hPa 0,0 l/m 0 min 0 min 29 W/m 19,3 km/h (3 Bft) 89,36 %
14.01.2019 10:32 4,1 C 4,4 C 2,8 C 97 % 1010,6 hPa 0,0 l/m 0 min 0 min 45 W/m 19,3 km/h (3 Bft) 95,65 %
14.01.2019 10:34 4,1 C 6,1 C 2,8 C 97 % 1010,7 hPa 0,0 l/m 2 min 0 min 135 W/m 16,1 km/h (3 Bft) 91,49 %
14.01.2019 10:36 4,2 C 7,2 C 2,8 C 97 % 1010,8 hPa 0,0 l/m 2 min 0 min 194 W/m 12,9 km/h (3 Bft) 93,62 %
14.01.2019 10:38 4,2 C 7,2 C 2,8 C 97 % 1010,8 hPa 0,0 l/m 2 min 0 min 195 W/m 25,7 km/h (4 Bft) 93,62 %
14.01.2019 10:40 4,2 C 7,8 C 3,3 C 97 % 1010,8 hPa 0,0 l/m 2 min 0 min 198 W/m 16,1 km/h (3 Bft) 95,74 %
14.01.2019 10:42 4,3 C 8,3 C 3,3 C 97 % 1010,8 hPa 0,0 l/m 2 min 0 min 192 W/m 16,1 km/h (3 Bft) 93,48 %
14.01.2019 10:44 4,4 C 8,3 C 3,3 C 97 % 1010,8 hPa 0,0 l/m 2 min 0 min 186 W/m 16,1 km/h (3 Bft) 93,62 %
14.01.2019 10:46 4,4 C 8,3 C 3,3 C 97 % 1010,9 hPa 0,0 l/m 2 min 0 min 190 W/m 16,1 km/h (3 Bft) 93,62 %
14.01.2019 10:48 4,5 C 7,8 C 3,3 C 97 % 1010,8 hPa 0,0 l/m 2 min 0 min 208 W/m 12,9 km/h (3 Bft) 93,62 %
14.01.2019 10:50 4,6 C 8,3 C 3,3 C 97 % 1010,9 hPa 0,0 l/m 2 min 0 min 237 W/m 22,5 km/h (4 Bft) 93,62 %
14.01.2019 10:52 4,7 C 8,9 C 3,9 C 97 % 1010,9 hPa 0,0 l/m 2 min 0 min 260 W/m 12,9 km/h (3 Bft) 91,49 %
14.01.2019 10:54 4,8 C 8,9 C 3,9 C 97 % 1011,0 hPa 0,0 l/m 2 min 0 min 265 W/m 25,7 km/h (4 Bft) 89,13 %
14.01.2019 10:56 4,9 C 7,8 C 3,9 C 97 % 1011,0 hPa 0,0 l/m 2 min 0 min 265 W/m 12,9 km/h (3 Bft) 93,62 %
14.01.2019 10:58 5,0 C 7,8 C 3,9 C 97 % 1011,0 hPa 0,0 l/m 2 min 0 min 190 W/m 12,9 km/h (3 Bft) 95,74 %
14.01.2019 11:00 5,1 C 7,2 C 3,9 C 97 % 1011,0 hPa 0,0 l/m 0 min 0 min 126 W/m 19,3 km/h (3 Bft) 97,87 %
14.01.2019 11:02 5,1 C 6,1 C 3,9 C 97 % 1011,1 hPa 0,0 l/m 0 min 0 min 87 W/m 16,1 km/h (3 Bft) 97,87 %
14.01.2019 11:04 5,1 C 5,6 C 3,9 C 97 % 1011,1 hPa 0,0 l/m 0 min 0 min 77 W/m 12,9 km/h (3 Bft) 95,74 %
14.01.2019 11:06 5,1 C 5,6 C 3,9 C 97 % 1011,1 hPa 0,0 l/m 0 min 0 min 76 W/m 25,7 km/h (4 Bft) 100,00 %
14.01.2019 11:08 5,1 C 5,6 C 3,3 C 97 % 1011,1 hPa 0,0 l/m 0 min 0 min 58 W/m 22,5 km/h (4 Bft) 95,74 %
14.01.2019 11:10 5,1 C 5,6 C 3,3 C 97 % 1011,2 hPa 0,0 l/m 0 min 0 min 84 W/m 22,5 km/h (4 Bft) 93,62 %
14.01.2019 11:12 5,1 C 7,2 C 3,3 C 97 % 1011,2 hPa 0,0 l/m 0 min 0 min 128 W/m 19,3 km/h (3 Bft) 95,74 %
14.01.2019 11:14 5,1 C 7,2 C 3,9 C 97 % 1011,2 hPa 0,0 l/m 2 min 0 min 154 W/m 19,3 km/h (3 Bft) 97,87 %
14.01.2019 11:16 5,1 C 7,8 C 3,9 C 97 % 1011,2 hPa 0,0 l/m 2 min 0 min 180 W/m 16,1 km/h (3 Bft) 95,74 %
14.01.2019 11:18 5,1 C 7,8 C 3,9 C 97 % 1011,3 hPa 0,0 l/m 2 min 0 min 169 W/m 22,5 km/h (4 Bft) 95,65 %
14.01.2019 11:20 5,2 C 8,3 C 3,9 C 97 % 1011,4 hPa 0,0 l/m 2 min 0 min 203 W/m 19,3 km/h (3 Bft) 97,87 %
14.01.2019 11:22 5,2 C 9,4 C 3,9 C 97 % 1011,4 hPa 0,0 l/m 2 min 0 min 149 W/m 19,3 km/h (3 Bft) 97,87 %
14.01.2019 11:24 5,3 C 10,0 C 3,9 C 97 % 1011,4 hPa 0,0 l/m 2 min 0 min 195 W/m 12,9 km/h (3 Bft) 95,74 %
14.01.2019 11:26 5,3 C 9,4 C 3,9 C 97 % 1011,4 hPa 0,0 l/m 2 min 0 min 212 W/m 12,9 km/h (3 Bft) 97,87 %
14.01.2019 11:28 5,4 C 8,3 C 4,4 C 97 % 1011,4 hPa 0,0 l/m 2 min 0 min 218 W/m 38,6 km/h (5 Bft) 97,87 %
14.01.2019 11:30 5,4 C 6,7 C 4,4 C 97 % 1011,4 hPa 0,0 l/m 0 min 2 min 147 W/m 22,5 km/h (4 Bft) 97,83 %
14.01.2019 11:32 5,4 C 6,1 C 4,4 C 96 % 1011,4 hPa 0,0 l/m 2 min 2 min 158 W/m 22,5 km/h (4 Bft) 97,87 %
14.01.2019 11:34 5,4 C 6,1 C 4,4 C 96 % 1011,4 hPa 0,0 l/m 2 min 0 min 182 W/m 22,5 km/h (4 Bft) 95,74 %
14.01.2019 11:36 5,4 C 5,6 C 4,4 C 96 % 1011,6 hPa 0,0 l/m 0 min 2 min 152 W/m 32,2 km/h (5 Bft) 97,87 %
14.01.2019 11:38 5,4 C 5,0 C 3,9 C 96 % 1011,8 hPa 0,0 l/m 0 min 2 min 100 W/m 35,4 km/h (5 Bft) 97,87 %
14.01.2019 11:40 5,3 C 4,4 C 3,3 C 96 % 1011,9 hPa 0,0 l/m 0 min 2 min 80 W/m 51,5 km/h (7 Bft) 95,74 %
14.01.2019 11:42 5,2 C 3,9 C 3,3 C 96 % 1012,0 hPa 0,0 l/m 0 min 2 min 86 W/m 45,1 km/h (6 Bft) 97,83 %
14.01.2019 11:44 5,0 C 3,3 C 2,8 C 95 % 1012,0 hPa 0,0 l/m 0 min 2 min 64 W/m 51,5 km/h (7 Bft) 97,87 %
14.01.2019 11:46 4,8 C 3,3 C 2,8 C 94 % 1011,9 hPa 0,0 l/m 0 min 2 min 39 W/m 45,1 km/h (6 Bft) 97,87 %
14.01.2019 11:48 4,6 C 2,8 C 2,2 C 94 % 1011,9 hPa 0,0 l/m 0 min 2 min 51 W/m 29,0 km/h (5 Bft) 95,74 %
14.01.2019 11:50 4,4 C 2,8 C 2,2 C 94 % 1011,9 hPa 0,0 l/m 0 min 2 min 61 W/m 29,0 km/h (5 Bft) 97,87 %
14.01.2019 11:52 4,3 C 3,3 C 2,2 C 94 % 1011,9 hPa 0,0 l/m 0 min 2 min 99 W/m 22,5 km/h (4 Bft) 97,87 %
14.01.2019 11:54 4,2 C 3,3 C 2,8 C 94 % 1011,9 hPa 0,0 l/m 0 min 2 min 114 W/m 22,5 km/h (4 Bft) 97,83 %
14.01.2019 11:56 4,2 C 3,3 C 2,8 C 93 % 1011,9 hPa 0,0 l/m 0 min 2 min 80 W/m 22,5 km/h (4 Bft) 97,87 %
14.01.2019 11:58 4,1 C 3,3 C 2,8 C 93 % 1012,0 hPa 0,0 l/m 0 min 0 min 51 W/m 22,5 km/h (4 Bft) 93,62 %
14.01.2019 12:00 4,1 C 3,3 C 2,2 C 93 % 1011,9 hPa 0,0 l/m 0 min 0 min 39 W/m 22,5 km/h (4 Bft) 97,87 %
14.01.2019 12:02 4,1 C 3,3 C 2,8 C 94 % 1011,9 hPa 0,0 l/m 0 min 0 min 44 W/m 16,1 km/h (3 Bft) 97,87 %
14.01.2019 12:04 4,1 C 3,3 C 2,8 C 94 % 1011,9 hPa 0,0 l/m 0 min 0 min 71 W/m 16,1 km/h (3 Bft) 97,83 %
14.01.2019 12:08 4,0 C 3,9 C 2,8 C 94 % 1011,9 hPa 0,0 l/m 0 min 0 min 109 W/m 19,3 km/h (3 Bft) 94,68 %
14.01.2019 12:10 4,1 C 4,4 C 3,3 C 94 % 1012,0 hPa 0,0 l/m 0 min 0 min 112 W/m 6,4 km/h (2 Bft) 95,74 %
14.01.2019 12:12 4,1 C 5,0 C 3,3 C 94 % 1012,0 hPa 0,0 l/m 0 min 0 min 115 W/m 19,3 km/h (3 Bft) 97,87 %
14.01.2019 12:14 4,1 C 6,1 C 2,8 C 94 % 1012,0 hPa 0,0 l/m 0 min 0 min 161 W/m 12,9 km/h (3 Bft) 97,87 %
14.01.2019 12:16 4,2 C 6,1 C 2,8 C 94 % 1012,0 hPa 0,0 l/m 0 min 0 min 144 W/m 12,9 km/h (3 Bft) 97,83 %
14.01.2019 12:18 4,2 C 5,0 C 2,8 C 94 % 1012,0 hPa 0,0 l/m 0 min 0 min 66 W/m 12,9 km/h (3 Bft) 97,87 %
14.01.2019 12:20 4,2 C 5,0 C 2,8 C 94 % 1012,1 hPa 0,0 l/m 0 min 0 min 66 W/m 16,1 km/h (3 Bft) 100,00 %
14.01.2019 12:22 4,3 C 6,1 C 3,3 C 94 % 1012,0 hPa 0,0 l/m 0 min 0 min 111 W/m 16,1 km/h (3 Bft) 97,87 %
14.01.2019 12:24 4,3 C 8,3 C 3,9 C 94 % 1012,1 hPa 0,0 l/m 2 min 0 min 285 W/m 9,7 km/h (2 Bft) 100,00 %
14.01.2019 12:26 4,4 C 8,9 C 4,4 C 94 % 1012,1 hPa 0,0 l/m 2 min 0 min 268 W/m 9,7 km/h (2 Bft) 100,00 %
14.01.2019 12:28 4,6 C 7,8 C 4,4 C 94 % 1012,1 hPa 0,0 l/m 2 min 0 min 187 W/m 12,9 km/h (3 Bft) 97,83 %
14.01.2019 12:30 4,7 C 7,2 C 3,9 C 95 % 1012,1 hPa 0,0 l/m 0 min 0 min 150 W/m 16,1 km/h (3 Bft) 87,23 %
14.01.2019 12:32 4,7 C 6,7 C 3,9 C 95 % 1012,2 hPa 0,0 l/m 0 min 0 min 118 W/m 12,9 km/h (3 Bft) 89,36 %
14.01.2019 12:34 4,7 C 5,6 C 3,9 C 94 % 1012,2 hPa 0,0 l/m 0 min 0 min 95 W/m 16,1 km/h (3 Bft) 91,49 %
14.01.2019 12:36 4,8 C 5,6 C 3,3 C 94 % 1012,1 hPa 0,0 l/m 0 min 0 min 78 W/m 19,3 km/h (3 Bft) 93,62 %
14.01.2019 12:38 4,7 C 5,0 C 3,3 C 94 % 1012,2 hPa 0,0 l/m 0 min 0 min 74 W/m 25,7 km/h (4 Bft) 91,49 %
14.01.2019 12:40 4,7 C 5,0 C 3,3 C 94 % 1012,2 hPa 0,0 l/m 0 min 0 min 74 W/m 22,5 km/h (4 Bft) 86,96 %
14.01.2019 12:42 4,7 C 5,6 C 3,3 C 94 % 1012,2 hPa 0,0 l/m 0 min 0 min 91 W/m 12,9 km/h (3 Bft) 87,23 %
14.01.2019 12:44 4,8 C 7,8 C 3,9 C 94 % 1012,2 hPa 0,0 l/m 0 min 0 min 166 W/m 9,7 km/h (2 Bft) 95,74 %
14.01.2019 12:46 4,8 C 10,0 C 3,9 C 94 % 1012,2 hPa 0,0 l/m 2 min 0 min 309 W/m 16,1 km/h (3 Bft) 91,49 %
14.01.2019 12:48 4,9 C 11,1 C 3,9 C 94 % 1012,3 hPa 0,0 l/m 2 min 0 min 325 W/m 12,9 km/h (3 Bft) 85,11 %
14.01.2019 12:50 5,1 C 11,7 C 4,4 C 94 % 1012,2 hPa 0,0 l/m 2 min 0 min 369 W/m 19,3 km/h (3 Bft) 97,87 %
14.01.2019 12:52 5,2 C 11,1 C 4,4 C 94 % 1012,3 hPa 0,0 l/m 2 min 0 min 328 W/m 29,0 km/h (5 Bft) 89,13 %
14.01.2019 12:54 5,3 C 10,6 C 4,4 C 94 % 1012,2 hPa 0,0 l/m 2 min 0 min 219 W/m 16,1 km/h (3 Bft) 95,74 %
14.01.2019 12:56 5,4 C 11,1 C 4,4 C 94 % 1012,2 hPa 0,0 l/m 2 min 0 min 246 W/m 25,7 km/h (4 Bft) 93,62 %
14.01.2019 12:58 5,4 C 11,1 C 4,4 C 94 % 1012,2 hPa 0,0 l/m 2 min 0 min 200 W/m 12,9 km/h (3 Bft) 93,62 %
14.01.2019 13:00 5,6 C 9,4 C 4,4 C 94 % 1012,2 hPa 0,0 l/m 0 min 0 min 151 W/m 9,7 km/h (2 Bft) 97,87 %
14.01.2019 13:02 5,6 C 9,4 C 4,4 C 93 % 1012,2 hPa 0,0 l/m 2 min 0 min 174 W/m 32,2 km/h (5 Bft) 95,74 %
14.01.2019 13:04 5,7 C 10,0 C 4,4 C 93 % 1012,2 hPa 0,0 l/m 2 min 0 min 335 W/m 22,5 km/h (4 Bft) 95,65 %
14.01.2019 13:06 5,7 C 8,3 C 4,4 C 93 % 1012,3 hPa 0,0 l/m 2 min 0 min 194 W/m 35,4 km/h (5 Bft) 95,74 %
14.01.2019 13:08 5,7 C 8,3 C 4,4 C 92 % 1012,3 hPa 0,0 l/m 0 min 0 min 151 W/m 19,3 km/h (3 Bft) 95,74 %
14.01.2019 13:10 5,7 C 8,3 C 4,4 C 92 % 1012,2 hPa 0,0 l/m 0 min 0 min 151 W/m 25,7 km/h (4 Bft) 95,74 %
14.01.2019 13:12 5,7 C 8,3 C 4,4 C 92 % 1012,3 hPa 0,0 l/m 0 min 0 min 150 W/m 19,3 km/h (3 Bft) 95,74 %
14.01.2019 13:14 5,8 C 10,6 C 4,4 C 92 % 1012,2 hPa 0,0 l/m 2 min 0 min 230 W/m 19,3 km/h (3 Bft) 91,30 %
14.01.2019 13:16 5,8 C 11,7 C 4,4 C 92 % 1012,3 hPa 0,0 l/m 2 min 0 min 335 W/m 22,5 km/h (4 Bft) 93,62 %
14.01.2019 13:18 5,9 C 12,2 C 4,4 C 91 % 1012,3 hPa 0,0 l/m 2 min 0 min 341 W/m 19,3 km/h (3 Bft) 95,74 %
14.01.2019 13:20 6,0 C 10,6 C 4,4 C 91 % 1012,4 hPa 0,0 l/m 2 min 0 min 247 W/m 12,9 km/h (3 Bft) 95,74 %
14.01.2019 13:22 6,1 C 8,9 C 4,4 C 91 % 1012,4 hPa 0,0 l/m 0 min 0 min 131 W/m 19,3 km/h (3 Bft) 95,74 %
14.01.2019 13:24 6,1 C 7,8 C 4,4 C 91 % 1012,2 hPa 0,0 l/m 0 min 0 min 123 W/m 32,2 km/h (5 Bft) 97,87 %
14.01.2019 13:26 6,1 C 7,8 C 4,4 C 91 % 1012,4 hPa 0,0 l/m 0 min 0 min 108 W/m 19,3 km/h (3 Bft) 97,83 %
14.01.2019 13:28 6,1 C 8,9 C 4,4 C 91 % 1012,4 hPa 0,0 l/m 2 min 0 min 354 W/m 22,5 km/h (4 Bft) 95,74 %
14.01.2019 13:30 6,1 C 8,9 C 5,0 C 90 % 1012,4 hPa 0,0 l/m 2 min 0 min 323 W/m 19,3 km/h (3 Bft) 97,87 %
14.01.2019 13:32 6,1 C 9,4 C 5,0 C 90 % 1012,3 hPa 0,0 l/m 2 min 0 min 227 W/m 16,1 km/h (3 Bft) 95,74 %
14.01.2019 13:34 6,2 C 9,4 C 5,0 C 90 % 1012,3 hPa 0,0 l/m 2 min 0 min 224 W/m 16,1 km/h (3 Bft) 97,87 %
14.01.2019 13:36 6,3 C 8,9 C 5,0 C 90 % 1012,3 hPa 0,0 l/m 2 min 0 min 207 W/m 19,3 km/h (3 Bft) 97,87 %
14.01.2019 13:38 6,3 C 10,6 C 5,6 C 90 % 1012,4 hPa 0,0 l/m 2 min 0 min 306 W/m 25,7 km/h (4 Bft) 100,00 %
14.01.2019 13:40 6,4 C 10,6 C 5,0 C 89 % 1012,4 hPa 0,0 l/m 2 min 0 min 378 W/m 25,7 km/h (4 Bft) 97,87 %
14.01.2019 13:42 6,4 C 10,0 C 5,6 C 89 % 1012,4 hPa 0,0 l/m 2 min 0 min 224 W/m 25,7 km/h (4 Bft) 93,62 %
14.01.2019 13:44 6,4 C 8,3 C 5,0 C 89 % 1012,5 hPa 0,0 l/m 0 min 0 min 115 W/m 35,4 km/h (5 Bft) 97,87 %
14.01.2019 13:46 6,4 C 7,8 C 4,4 C 88 % 1012,4 hPa 0,0 l/m 0 min 0 min 108 W/m 35,4 km/h (5 Bft) 100,00 %
14.01.2019 13:48 6,4 C 7,2 C 4,4 C 87 % 1012,4 hPa 0,0 l/m 0 min 0 min 90 W/m 22,5 km/h (4 Bft) 97,87 %
14.01.2019 13:50 6,4 C 6,7 C 4,4 C 87 % 1012,4 hPa 0,0 l/m 0 min 0 min 108 W/m 19,3 km/h (3 Bft) 97,83 %
14.01.2019 13:52 6,4 C 6,1 C 4,4 C 87 % 1012,5 hPa 0,0 l/m 0 min 0 min 86 W/m 32,2 km/h (5 Bft) 97,87 %
14.01.2019 13:54 6,3 C 6,1 C 4,4 C 86 % 1012,6 hPa 0,0 l/m 0 min 2 min 59 W/m 25,7 km/h (4 Bft) 100,00 %
14.01.2019 13:56 6,3 C 5,6 C 3,9 C 86 % 1012,8 hPa 0,0 l/m 0 min 2 min 51 W/m 29,0 km/h (5 Bft) 100,00 %
14.01.2019 13:58 6,2 C 4,4 C 3,3 C 86 % 1013,2 hPa 0,2 l/m 0 min 2 min 35 W/m 61,2 km/h (7 Bft) 97,87 %
14.01.2019 14:00 5,9 C 3,9 C 2,8 C 86 % 1013,2 hPa 0,2 l/m 0 min 2 min 41 W/m 32,2 km/h (5 Bft) 95,74 %
14.01.2019 14:02 5,7 C 3,3 C 2,8 C 86 % 1013,3 hPa 0,0 l/m 0 min 2 min 37 W/m 29,0 km/h (5 Bft) 100,00 %
14.01.2019 14:04 5,5 C 3,3 C 2,8 C 87 % 1013,2 hPa 0,0 l/m 0 min 2 min 29 W/m 25,7 km/h (4 Bft) 100,00 %
14.01.2019 14:06 5,3 C 2,8 C 2,8 C 87 % 1013,2 hPa 0,0 l/m 0 min 2 min 33 W/m 25,7 km/h (4 Bft) 100,00 %
14.01.2019 14:08 5,1 C 2,8 C 2,8 C 88 % 1013,2 hPa 0,0 l/m 0 min 0 min 29 W/m 16,1 km/h (3 Bft) 100,00 %
14.01.2019 14:10 5,0 C 2,8 C 2,2 C 88 % 1013,2 hPa 0,0 l/m 0 min 0 min 38 W/m 19,3 km/h (3 Bft) 100,00 %
14.01.2019 14:12 4,8 C 2,8 C 2,2 C 89 % 1013,2 hPa 0,0 l/m 0 min 0 min 45 W/m 25,7 km/h (4 Bft) 100,00 %
14.01.2019 14:14 4,7 C 2,8 C 2,2 C 89 % 1013,1 hPa 0,0 l/m 0 min 0 min 45 W/m 22,5 km/h (4 Bft) 100,00 %
14.01.2019 14:16 4,6 C 3,3 C 2,8 C 89 % 1013,0 hPa 0,0 l/m 0 min 0 min 49 W/m 22,5 km/h (4 Bft) 97,87 %
14.01.2019 14:18 4,5 C 3,3 C 2,2 C 90 % 1013,0 hPa 0,0 l/m 0 min 0 min 53 W/m 25,7 km/h (4 Bft) 95,74 %
14.01.2019 14:20 4,4 C 3,3 C 2,8 C 90 % 1013,0 hPa 0,0 l/m 0 min 0 min 57 W/m 38,6 km/h (5 Bft) 95,74 %
14.01.2019 14:22 4,3 C 3,3 C 2,8 C 90 % 1013,0 hPa 0,0 l/m 0 min 0 min 63 W/m 29,0 km/h (5 Bft) 97,87 %
14.01.2019 14:24 4,3 C 3,9 C 2,8 C 90 % 1013,1 hPa 0,0 l/m 0 min 0 min 69 W/m 22,5 km/h (4 Bft) 100,00 %
14.01.2019 14:26 4,2 C 6,1 C 3,3 C 91 % 1013,1 hPa 0,0 l/m 2 min 0 min 162 W/m 22,5 km/h (4 Bft) 97,87 %
14.01.2019 14:28 4,2 C 7,8 C 3,9 C 91 % 1013,1 hPa 0,0 l/m 2 min 0 min 244 W/m 22,5 km/h (4 Bft) 100,00 %
14.01.2019 14:30 4,3 C 8,9 C 3,3 C 92 % 1013,1 hPa 0,0 l/m 2 min 0 min 240 W/m 19,3 km/h (3 Bft) 100,00 %
14.01.2019 14:32 4,3 C 9,4 C 3,3 C 92 % 1013,1 hPa 0,0 l/m 2 min 0 min 237 W/m 22,5 km/h (4 Bft) 95,74 %
14.01.2019 14:34 4,4 C 10,0 C 2,8 C 92 % 1013,1 hPa 0,0 l/m 2 min 0 min 235 W/m 29,0 km/h (5 Bft) 95,74 %
14.01.2019 14:36 4,4 C 10,6 C 2,8 C 92 % 1013,0 hPa 0,0 l/m 2 min 0 min 231 W/m 25,7 km/h (4 Bft) 97,83 %
14.01.2019 14:38 4,5 C 10,0 C 2,8 C 93 % 1013,1 hPa 0,0 l/m 2 min 0 min 226 W/m 25,7 km/h (4 Bft) 100,00 %
14.01.2019 14:40 4,5 C 10,0 C 3,3 C 93 % 1013,1 hPa 0,0 l/m 2 min 0 min 222 W/m 29,0 km/h (5 Bft) 100,00 %
14.01.2019 14:42 4,6 C 10,0 C 2,8 C 92 % 1013,2 hPa 0,0 l/m 2 min 0 min 221 W/m 25,7 km/h (4 Bft) 100,00 %
14.01.2019 14:44 4,6 C 10,0 C 3,3 C 92 % 1013,2 hPa 0,0 l/m 2 min 0 min 218 W/m 19,3 km/h (3 Bft) 97,87 %
14.01.2019 14:46 4,7 C 10,0 C 2,8 C 92 % 1013,2 hPa 0,0 l/m 2 min 0 min 214 W/m 25,7 km/h (4 Bft) 97,87 %
14.01.2019 14:48 4,7 C 10,0 C 3,3 C 92 % 1013,2 hPa 0,0 l/m 2 min 0 min 210 W/m 22,5 km/h (4 Bft) 100,00 %
14.01.2019 14:50 4,7 C 10,0 C 3,3 C 92 % 1013,3 hPa 0,0 l/m 2 min 0 min 206 W/m 25,7 km/h (4 Bft) 97,87 %
14.01.2019 14:52 4,7 C 10,0 C 2,8 C 92 % 1013,3 hPa 0,0 l/m 2 min 0 min 203 W/m 22,5 km/h (4 Bft) 97,87 %
14.01.2019 14:54 4,7 C 9,4 C 3,3 C 92 % 1013,3 hPa 0,0 l/m 2 min 0 min 199 W/m 22,5 km/h (4 Bft) 100,00 %
14.01.2019 14:56 4,8 C 9,4 C 3,3 C 92 % 1013,4 hPa 0,0 l/m 2 min 0 min 194 W/m 35,4 km/h (5 Bft) 97,87 %
14.01.2019 14:58 4,8 C 7,8 C 2,8 C 91 % 1013,4 hPa 0,0 l/m 2 min 0 min 190 W/m 19,3 km/h (3 Bft) 100,00 %
14.01.2019 15:00 4,8 C 6,1 C 2,8 C 91 % 1013,4 hPa 0,0 l/m 2 min 0 min 188 W/m 32,2 km/h (5 Bft) 97,83 %
14.01.2019 15:02 4,8 C 5,6 C 2,8 C 91 % 1013,5 hPa 0,0 l/m 2 min 0 min 184 W/m 29,0 km/h (5 Bft) 97,87 %
14.01.2019 15:04 4,8 C 5,0 C 2,8 C 91 % 1013,6 hPa 0,0 l/m 2 min 0 min 127 W/m 35,4 km/h (5 Bft) 95,74 %
14.01.2019 15:06 4,8 C 5,0 C 3,3 C 91 % 1013,7 hPa 0,0 l/m 0 min 0 min 77 W/m 22,5 km/h (4 Bft) 97,87 %
14.01.2019 15:08 4,8 C 5,0 C 3,3 C 91 % 1013,6 hPa 0,0 l/m 0 min 0 min 93 W/m 25,7 km/h (4 Bft) 97,87 %
14.01.2019 15:10 4,8 C 5,6 C 3,3 C 90 % 1013,7 hPa 0,0 l/m 2 min 0 min 124 W/m 22,5 km/h (4 Bft) 97,87 %
14.01.2019 15:12 4,8 C 5,6 C 3,9 C 90 % 1013,7 hPa 0,0 l/m 2 min 0 min 121 W/m 22,5 km/h (4 Bft) 94,29 %
14.01.2019 15:14 4,8 C 5,6 C 3,9 C 90 % 1013,7 hPa 0,0 l/m 2 min 0 min 107 W/m 22,5 km/h (4 Bft) 95,65 %
14.01.2019 15:16 4,9 C 5,6 C 3,3 C 90 % 1013,7 hPa 0,0 l/m 2 min 0 min 113 W/m 29,0 km/h (5 Bft) 93,62 %
14.01.2019 15:18 4,9 C 5,6 C 3,9 C 90 % 1013,9 hPa 0,0 l/m 2 min 0 min 120 W/m 19,3 km/h (3 Bft) 93,62 %
14.01.2019 15:20 4,9 C 5,6 C 3,9 C 90 % 1013,9 hPa 0,0 l/m 0 min 0 min 89 W/m 16,1 km/h (3 Bft) 95,74 %
14.01.2019 15:22 5,0 C 5,6 C 3,9 C 91 % 1013,8 hPa 0,0 l/m 0 min 0 min 79 W/m 19,3 km/h (3 Bft) 95,74 %
14.01.2019 15:24 5,0 C 5,6 C 3,9 C 90 % 1013,9 hPa 0,0 l/m 2 min 0 min 106 W/m 22,5 km/h (4 Bft) 95,74 %
14.01.2019 15:26 5,0 C 5,6 C 3,9 C 90 % 1013,9 hPa 0,0 l/m 2 min 0 min 106 W/m 29,0 km/h (5 Bft) 95,65 %
14.01.2019 15:28 5,1 C 5,6 C 3,9 C 90 % 1014,0 hPa 0,0 l/m 2 min 0 min 89 W/m 22,5 km/h (4 Bft) 97,87 %
14.01.2019 15:30 5,1 C 5,0 C 3,9 C 90 % 1014,0 hPa 0,0 l/m 0 min 0 min 73 W/m 16,1 km/h (3 Bft) 93,62 %
14.01.2019 15:32 5,1 C 5,0 C 3,3 C 90 % 1014,0 hPa 0,0 l/m 0 min 0 min 50 W/m 22,5 km/h (4 Bft) 89,36 %
14.01.2019 15:34 5,1 C 5,0 C 3,3 C 90 % 1014,0 hPa 0,0 l/m 0 min 0 min 46 W/m 19,3 km/h (3 Bft) 93,62 %
14.01.2019 15:36 5,1 C 5,0 C 3,3 C 90 % 1014,0 hPa 0,0 l/m 0 min 0 min 37 W/m 16,1 km/h (3 Bft) 91,38 %
14.01.2019 15:38 5,1 C 5,0 C 3,3 C 90 % 1014,1 hPa 0,0 l/m 0 min 0 min 22 W/m 12,9 km/h (3 Bft) 94,29 %
14.01.2019 15:40 5,0 C 4,4 C 3,3 C 90 % 1014,1 hPa 0,0 l/m 0 min 0 min 17 W/m 38,6 km/h (5 Bft) 93,62 %
14.01.2019 15:42 4,9 C 4,4 C 3,3 C 89 % 1014,1 hPa 0,0 l/m 0 min 0 min 16 W/m 29,0 km/h (5 Bft) 91,49 %
14.01.2019 15:44 4,9 C 4,4 C 2,8 C 89 % 1014,1 hPa 0,0 l/m 0 min 0 min 15 W/m 32,2 km/h (5 Bft) 93,62 %
14.01.2019 15:46 4,8 C 3,9 C 2,8 C 88 % 1014,1 hPa 0,0 l/m 0 min 0 min 19 W/m 22,5 km/h (4 Bft) 93,62 %
14.01.2019 15:48 4,7 C 3,9 C 2,8 C 88 % 1014,1 hPa 0,0 l/m 0 min 0 min 23 W/m 16,1 km/h (3 Bft) 91,30 %
14.01.2019 15:50 4,7 C 3,9 C 2,8 C 88 % 1014,1 hPa 0,0 l/m 0 min 0 min 24 W/m 16,1 km/h (3 Bft) 93,62 %
14.01.2019 15:52 4,6 C 3,9 C 2,2 C 88 % 1014,2 hPa 0,0 l/m 0 min 0 min 25 W/m 16,1 km/h (3 Bft) 93,62 %
14.01.2019 15:54 4,5 C 3,3 C 2,2 C 88 % 1014,2 hPa 0,0 l/m 0 min 0 min 25 W/m 19,3 km/h (3 Bft) 95,74 %
14.01.2019 15:56 4,4 C 3,3 C 2,2 C 88 % 1014,3 hPa 0,0 l/m 0 min 0 min 24 W/m 19,3 km/h (3 Bft) 97,87 %
14.01.2019 15:58 4,4 C 3,3 C 2,2 C 88 % 1014,3 hPa 0,0 l/m 0 min 0 min 27 W/m 19,3 km/h (3 Bft) 100,00 %
14.01.2019 16:00 4,3 C 3,3 C 2,2 C 88 % 1014,4 hPa 0,0 l/m 0 min 0 min 31 W/m 16,1 km/h (3 Bft) 95,65 %
14.01.2019 16:02 4,3 C 3,3 C 2,2 C 88 % 1014,6 hPa 0,0 l/m 0 min 0 min 33 W/m 16,1 km/h (3 Bft) 97,87 %
14.01.2019 16:04 4,2 C 3,3 C 2,2 C 88 % 1014,5 hPa 0,0 l/m 0 min 0 min 32 W/m 16,1 km/h (3 Bft) 93,62 %
14.01.2019 16:06 4,2 C 3,3 C 2,2 C 89 % 1014,5 hPa 0,0 l/m 0 min 0 min 29 W/m 12,9 km/h (3 Bft) 96,61 %
14.01.2019 16:08 4,2 C 3,3 C 2,2 C 89 % 1014,6 hPa 0,0 l/m 0 min 0 min 27 W/m 6,4 km/h (2 Bft) 97,14 %
14.01.2019 16:10 4,2 C 3,3 C 2,2 C 89 % 1014,6 hPa 0,0 l/m 0 min 0 min 25 W/m 12,9 km/h (3 Bft) 95,74 %
14.01.2019 16:12 4,1 C 3,3 C 2,2 C 89 % 1014,6 hPa 0,0 l/m 0 min 0 min 25 W/m 16,1 km/h (3 Bft) 97,83 %
14.01.2019 16:14 4,1 C 3,3 C 2,2 C 89 % 1014,7 hPa 0,0 l/m 0 min 0 min 25 W/m 12,9 km/h (3 Bft) 97,87 %
14.01.2019 16:16 4,1 C 3,3 C 2,2 C 89 % 1014,7 hPa 0,0 l/m 0 min 0 min 22 W/m 16,1 km/h (3 Bft) 97,87 %
14.01.2019 16:18 4,1 C 3,3 C 2,2 C 89 % 1014,7 hPa 0,0 l/m 0 min 0 min 18 W/m 9,7 km/h (2 Bft) 97,87 %
14.01.2019 16:20 4,1 C 3,3 C 2,2 C 89 % 1014,9 hPa 0,0 l/m 0 min 0 min 15 W/m 12,9 km/h (3 Bft) 100,00 %
14.01.2019 16:22 4,1 C 3,3 C 2,8 C 90 % 1014,9 hPa 0,0 l/m 0 min 0 min 16 W/m 19,3 km/h (3 Bft) 97,87 %
14.01.2019 16:24 4,1 C 3,3 C 2,8 C 90 % 1014,9 hPa 0,0 l/m 0 min 0 min 18 W/m 16,1 km/h (3 Bft) 100,00 %
14.01.2019 16:26 4,0 C 3,9 C 2,8 C 90 % 1015,0 hPa 0,0 l/m 2 min 0 min 27 W/m 16,1 km/h (3 Bft) 100,00 %
14.01.2019 16:28 4,0 C 3,9 C 2,8 C 90 % 1015,1 hPa 0,0 l/m 2 min 0 min 25 W/m 16,1 km/h (3 Bft) 97,87 %
14.01.2019 16:30 4,0 C 3,9 C 2,8 C 90 % 1015,1 hPa 0,0 l/m 0 min 0 min 15 W/m 19,3 km/h (3 Bft) 97,87 %
14.01.2019 16:32 4,0 C 3,9 C 2,2 C 90 % 1015,1 hPa 0,0 l/m 0 min 0 min 10 W/m 25,7 km/h (4 Bft) 100,00 %
14.01.2019 16:34 4,0 C 3,3 C 2,2 C 90 % 1015,2 hPa 0,0 l/m 0 min 0 min 9 W/m 19,3 km/h (3 Bft) 100,00 %
14.01.2019 16:36 4,0 C 3,3 C 2,2 C 90 % 1015,3 hPa 0,0 l/m 0 min 0 min 9 W/m 19,3 km/h (3 Bft) 100,00 %
14.01.2019 16:38 4,0 C 3,3 C 2,2 C 90 % 1015,3 hPa 0,0 l/m 0 min 0 min 8 W/m 19,3 km/h (3 Bft) 100,00 %
14.01.2019 16:40 3,9 C 3,3 C 2,2 C 90 % 1015,2 hPa 0,0 l/m 0 min 0 min 7 W/m 25,7 km/h (4 Bft) 95,74 %
14.01.2019 16:42 3,9 C 3,3 C 2,2 C 89 % 1015,3 hPa 0,0 l/m 0 min 0 min 7 W/m 19,3 km/h (3 Bft) 97,87 %
14.01.2019 16:44 3,9 C 3,3 C 2,2 C 89 % 1015,2 hPa 0,0 l/m 0 min 0 min 6 W/m 19,3 km/h (3 Bft) 100,00 %
14.01.2019 16:46 3,9 C 3,3 C 2,2 C 89 % 1015,3 hPa 0,0 l/m 0 min 0 min 5 W/m 12,9 km/h (3 Bft) 97,83 %
14.01.2019 16:48 3,9 C 2,8 C 2,2 C 89 % 1015,3 hPa 0,0 l/m 0 min 0 min 5 W/m 19,3 km/h (3 Bft) 100,00 %
14.01.2019 16:50 3,8 C 2,8 C 2,2 C 89 % 1015,3 hPa 0,0 l/m 0 min 0 min 5 W/m 19,3 km/h (3 Bft) 100,00 %
14.01.2019 16:52 3,8 C 2,8 C 2,2 C 89 % 1015,3 hPa 0,0 l/m 0 min 0 min 5 W/m 12,9 km/h (3 Bft) 100,00 %
14.01.2019 16:54 3,8 C 2,8 C 1,7 C 89 % 1015,4 hPa 0,0 l/m 0 min 0 min 4 W/m 9,7 km/h (2 Bft) 100,00 %
14.01.2019 16:56 3,8 C 2,8 C 1,7 C 89 % 1015,3 hPa 0,0 l/m 0 min 0 min 0 W/m 9,7 km/h (2 Bft) 100,00 %
14.01.2019 16:58 3,7 C 2,8 C 1,7 C 89 % 1015,4 hPa 0,0 l/m 0 min 0 min 0 W/m 6,4 km/h (2 Bft) 100,00 %
14.01.2019 17:00 3,7 C 2,8 C 1,7 C 89 % 1015,4 hPa 0,0 l/m 0 min 0 min 0 W/m 12,9 km/h (3 Bft) 97,87 %
14.01.2019 17:02 3,7 C 2,8 C 1,7 C 89 % 1015,4 hPa 0,0 l/m 0 min 0 min 0 W/m 12,9 km/h (3 Bft) 100,00 %
14.01.2019 17:04 3,7 C 2,8 C 1,7 C 89 % 1015,5 hPa 0,0 l/m 0 min 0 min 0 W/m 6,4 km/h (2 Bft) 100,00 %
14.01.2019 17:06 3,6 C 2,8 C 1,7 C 89 % 1015,5 hPa 0,0 l/m 0 min 0 min 0 W/m 9,7 km/h (2 Bft) 100,00 %
14.01.2019 17:08 3,6 C 2,8 C 1,7 C 90 % 1015,4 hPa 0,0 l/m 0 min 0 min 0 W/m 12,9 km/h (3 Bft) 100,00 %
14.01.2019 17:10 3,6 C 2,8 C 1,7 C 90 % 1015,5 hPa 0,0 l/m 0 min 0 min 0 W/m 6,4 km/h (2 Bft) 100,00 %
14.01.2019 17:12 3,6 C 2,8 C 1,7 C 90 % 1015,5 hPa 0,0 l/m 0 min 0 min 0 W/m 9,7 km/h (2 Bft) 97,87 %
14.01.2019 17:14 3,6 C 2,8 C 1,7 C 90 % 1015,5 hPa 0,0 l/m 0 min 0 min 0 W/m 6,4 km/h (2 Bft) 100,00 %
14.01.2019 17:16 3,6 C 2,8 C 1,7 C 90 % 1015,5 hPa 0,0 l/m 0 min 0 min 0 W/m 9,7 km/h (2 Bft) 100,00 %
14.01.2019 17:18 3,5 C 2,8 C 1,7 C 90 % 1015,6 hPa 0,0 l/m 0 min 0 min 0 W/m 3,2 km/h (1 Bft) 100,00 %
14.01.2019 17:20 3,5 C 2,8 C 1,7 C 90 % 1015,6 hPa 0,0 l/m 0 min 0 min 0 W/m 0,0 km/h (0 Bft) 100,00 %
14.01.2019 17:22 3,5 C 2,8 C 1,7 C 90 % 1015,6 hPa 0,0 l/m 0 min 0 min 0 W/m 0,0 km/h (0 Bft) 100,00 %
14.01.2019 17:24 3,5 C 2,8 C 1,7 C 90 % 1015,6 hPa 0,0 l/m 0 min 0 min 0 W/m 9,7 km/h (2 Bft) 97,87 %
14.01.2019 17:26 3,4 C 2,8 C 1,7 C 90 % 1015,6 hPa 0,0 l/m 0 min 0 min 0 W/m 6,4 km/h (2 Bft) 97,87 %
14.01.2019 17:28 3,4 C 2,8 C 1,7 C 90 % 1015,7 hPa 0,0 l/m 0 min 0 min 0 W/m 9,7 km/h (2 Bft) 93,62 %
14.01.2019 17:30 3,4 C 2,2 C 1,7 C 90 % 1015,7 hPa 0,0 l/m 0 min 0 min 0 W/m 6,4 km/h (2 Bft) 97,87 %
14.01.2019 17:32 3,4 C 2,2 C 1,7 C 90 % 1015,7 hPa 0,0 l/m 0 min 0 min 0 W/m 9,7 km/h (2 Bft) 97,87 %
14.01.2019 17:34 3,3 C 2,2 C 1,7 C 90 % 1015,8 hPa 0,0 l/m 0 min 0 min 0 W/m 9,7 km/h (2 Bft) 100,00 %
14.01.2019 17:36 3,3 C 2,2 C 1,7 C 90 % 1015,7 hPa 0,0 l/m 0 min 0 min 0 W/m 6,4 km/h (2 Bft) 100,00 %
14.01.2019 17:38 3,3 C 2,2 C 1,7 C 90 % 1015,8 hPa 0,0 l/m 0 min 0 min 0 W/m 6,4 km/h (2 Bft) 97,14 %
14.01.2019 17:40 3,3 C 2,2 C 1,7 C 90 % 1015,8 hPa 0,0 l/m 0 min 0 min 0 W/m 6,4 km/h (2 Bft) 95,74 %
14.01.2019 17:42 3,2 C 2,2 C 1,7 C 90 % 1015,8 hPa 0,0 l/m 0 min 0 min 0 W/m 9,7 km/h (2 Bft) 97,87 %
14.01.2019 17:44 3,2 C 2,2 C 1,1 C 90 % 1015,8 hPa 0,0 l/m 0 min 0 min 0 W/m 9,7 km/h (2 Bft) 100,00 %
14.01.2019 17:46 3,2 C 2,2 C 1,1 C 90 % 1015,8 hPa 0,0 l/m 0 min 0 min 0 W/m 6,4 km/h (2 Bft) 97,83 %
14.01.2019 17:48 3,2 C 2,2 C 1,1 C 90 % 1015,8 hPa 0,0 l/m 0 min 0 min 0 W/m 6,4 km/h (2 Bft) 97,87 %
14.01.2019 17:50 3,1 C 2,2 C 1,1 C 90 % 1015,8 hPa 0,0 l/m 0 min 0 min 0 W/m 9,7 km/h (2 Bft) 97,87 %
14.01.2019 17:52 3,1 C 2,2 C 1,1 C 90 % 1015,8 hPa 0,0 l/m 0 min 0 min 0 W/m 9,7 km/h (2 Bft) 100,00 %
14.01.2019 17:54 3,1 C 2,2 C 1,1 C 90 % 1015,9 hPa 0,0 l/m 0 min 0 min 0 W/m 9,7 km/h (2 Bft) 93,62 %
14.01.2019 17:56 3,0 C 2,2 C 1,1 C 90 % 1015,9 hPa 0,0 l/m 0 min 0 min 0 W/m 9,7 km/h (2 Bft) 93,62 %
14.01.2019 17:58 3,0 C 2,2 C 1,1 C 90 % 1016,0 hPa 0,0 l/m 0 min 0 min 0 W/m 6,4 km/h (2 Bft) 95,65 %
14.01.2019 18:00 2,9 C 2,2 C 1,1 C 90 % 1016,1 hPa 0,0 l/m 0 min 0 min 0 W/m 9,7 km/h (2 Bft) 95,74 %
14.01.2019 18:02 2,9 C 2,2 C 1,1 C 90 % 1016,0 hPa 0,0 l/m 0 min 0 min 0 W/m 9,7 km/h (2 Bft) 93,62 %
14.01.2019 18:04 2,9 C 2,2 C 1,1 C 90 % 1016,0 hPa 0,0 l/m 0 min 0 min 0 W/m 9,7 km/h (2 Bft) 95,74 %
14.01.2019 18:08 2,9 C 2,2 C 1,1 C 90 % 1016,0 hPa 0,0 l/m 0 min 0 min 0 W/m 12,9 km/h (3 Bft) 95,70 %
14.01.2019 18:10 2,9 C 2,2 C 1,1 C 90 % 1016,0 hPa 0,0 l/m 0 min 0 min 0 W/m 12,9 km/h (3 Bft) 95,74 %
14.01.2019 18:12 2,8 C 2,2 C 1,1 C 90 % 1015,9 hPa 0,0 l/m 0 min 0 min 0 W/m 9,7 km/h (2 Bft) 93,62 %
14.01.2019 18:14 2,8 C 2,2 C 1,1 C 90 % 1015,9 hPa 0,0 l/m 0 min 0 min 0 W/m 6,4 km/h (2 Bft) 93,62 %
14.01.2019 18:16 2,8 C 1,7 C 1,1 C 90 % 1016,0 hPa 0,0 l/m 0 min 0 min 0 W/m 9,7 km/h (2 Bft) 95,74 %
14.01.2019 18:18 2,8 C 1,7 C 1,1 C 90 % 1016,0 hPa 0,0 l/m 0 min 0 min 0 W/m 12,9 km/h (3 Bft) 97,87 %
14.01.2019 18:20 2,8 C 2,2 C 1,1 C 90 % 1016,1 hPa 0,0 l/m 0 min 0 min 0 W/m 9,7 km/h (2 Bft) 97,83 %
14.01.2019 18:22 2,8 C 2,2 C 1,1 C 91 % 1016,1 hPa 0,0 l/m 0 min 0 min 0 W/m 9,7 km/h (2 Bft) 95,74 %
14.01.2019 18:24 2,8 C 2,2 C 1,1 C 90 % 1016,1 hPa 0,0 l/m 0 min 0 min 0 W/m 9,7 km/h (2 Bft) 97,87 %
14.01.2019 18:26 2,7 C 2,2 C 1,1 C 90 % 1016,2 hPa 0,0 l/m 0 min 0 min 0 W/m 6,4 km/h (2 Bft) 95,74 %
14.01.2019 18:28 2,7 C 2,2 C 1,1 C 90 % 1016,2 hPa 0,0 l/m 0 min 0 min 0 W/m 9,7 km/h (2 Bft) 97,87 %
14.01.2019 18:30 2,7 C 2,2 C 1,1 C 91 % 1016,2 hPa 0,0 l/m 0 min 0 min 0 W/m 9,7 km/h (2 Bft) 95,74 %
14.01.2019 18:32 2,7 C 2,2 C 1,1 C 91 % 1016,2 hPa 0,0 l/m 0 min 0 min 0 W/m 9,7 km/h (2 Bft) 97,83 %
14.01.2019 18:34 2,7 C 2,2 C 1,1 C 91 % 1016,3 hPa 0,0 l/m 0 min 0 min 0 W/m 6,4 km/h (2 Bft) 95,74 %
14.01.2019 18:36 2,7 C 2,2 C 1,1 C 91 % 1016,3 hPa 0,0 l/m 0 min 0 min 0 W/m 6,4 km/h (2 Bft) 98,31 %
14.01.2019 18:38 2,7 C 2,2 C 1,1 C 91 % 1016,3 hPa 0,0 l/m 0 min 0 min 0 W/m 6,4 km/h (2 Bft) 97,14 %
14.01.2019 18:40 2,7 C 1,7 C 1,1 C 91 % 1016,3 hPa 0,0 l/m 0 min 0 min 0 W/m 6,4 km/h (2 Bft) 97,87 %
14.01.2019 18:42 2,7 C 2,2 C 1,1 C 91 % 1016,3 hPa 0,0 l/m 0 min 0 min 0 W/m 9,7 km/h (2 Bft) 97,87 %
14.01.2019 18:44 2,7 C 2,2 C 1,1 C 91 % 1016,4 hPa 0,0 l/m 0 min 0 min 0 W/m 9,7 km/h (2 Bft) 97,83 %
14.01.2019 18:46 2,7 C 2,2 C 1,1 C 91 % 1016,3 hPa 0,0 l/m 0 min 0 min 0 W/m 9,7 km/h (2 Bft) 100,00 %
14.01.2019 18:48 2,7 C 2,2 C 1,7 C 91 % 1016,4 hPa 0,0 l/m 0 min 0 min 0 W/m 9,7 km/h (2 Bft) 100,00 %
14.01.2019 18:50 2,7 C 2,2 C 1,7 C 91 % 1016,3 hPa 0,0 l/m 0 min 0 min 0 W/m 6,4 km/h (2 Bft) 100,00 %
14.01.2019 18:52 2,7 C 2,2 C 1,7 C 91 % 1016,4 hPa 0,0 l/m 0 min 0 min 0 W/m 9,7 km/h (2 Bft) 100,00 %
14.01.2019 18:54 2,7 C 2,2 C 1,7 C 91 % 1016,4 hPa 0,0 l/m 0 min 0 min 0 W/m 9,7 km/h (2 Bft) 100,00 %
14.01.2019 18:56 2,7 C 2,2 C 1,7 C 91 % 1016,4 hPa 0,0 l/m 0 min 0 min 0 W/m 6,4 km/h (2 Bft) 100,00 %
14.01.2019 18:58 2,7 C 2,2 C 1,7 C 92 % 1016,4 hPa 0,0 l/m 0 min 0 min 0 W/m 6,4 km/h (2 Bft) 100,00 %
14.01.2019 19:00 2,7 C 2,2 C 1,7 C 92 % 1016,4 hPa 0,0 l/m 0 min 0 min 0 W/m 6,4 km/h (2 Bft) 97,87 %
14.01.2019 19:02 2,8 C 2,8 C 1,7 C 92 % 1016,5 hPa 0,0 l/m 0 min 0 min 0 W/m 9,7 km/h (2 Bft) 95,74 %
14.01.2019 19:04 2,8 C 2,8 C 1,7 C 92 % 1016,6 hPa 0,0 l/m 0 min 0 min 0 W/m 9,7 km/h (2 Bft) 97,87 %
14.01.2019 19:06 2,8 C 2,8 C 1,7 C 92 % 1016,7 hPa 0,0 l/m 0 min 0 min 0 W/m 9,7 km/h (2 Bft) 98,28 %
14.01.2019 19:08 2,8 C 2,8 C 1,7 C 92 % 1016,7 hPa 0,0 l/m 0 min 0 min 0 W/m 9,7 km/h (2 Bft) 97,14 %
14.01.2019 19:10 2,9 C 2,8 C 1,7 C 92 % 1016,7 hPa 0,0 l/m 0 min 0 min 0 W/m 9,7 km/h (2 Bft) 97,87 %
14.01.2019 19:12 2,9 C 2,8 C 2,2 C 92 % 1016,8 hPa 0,0 l/m 0 min 0 min 0 W/m 12,9 km/h (3 Bft) 97,87 %
14.01.2019 19:14 2,9 C 2,8 C 2,2 C 92 % 1016,7 hPa 0,0 l/m 0 min 0 min 0 W/m 22,5 km/h (4 Bft) 97,87 %
14.01.2019 19:16 3,0 C 2,8 C 2,2 C 92 % 1016,7 hPa 0,0 l/m 0 min 0 min 0 W/m 12,9 km/h (3 Bft) 97,87 %
14.01.2019 19:18 3,0 C 2,8 C 2,2 C 92 % 1016,8 hPa 0,0 l/m 0 min 0 min 0 W/m 16,1 km/h (3 Bft) 97,83 %
14.01.2019 19:20 3,1 C 2,8 C 2,2 C 92 % 1016,8 hPa 0,0 l/m 0 min 0 min 0 W/m 16,1 km/h (3 Bft) 97,87 %
14.01.2019 19:22 3,1 C 2,8 C 2,2 C 92 % 1016,9 hPa 0,0 l/m 0 min 0 min 0 W/m 12,9 km/h (3 Bft) 97,87 %
14.01.2019 19:24 3,1 C 2,8 C 2,2 C 92 % 1016,9 hPa 0,0 l/m 0 min 0 min 0 W/m 19,3 km/h (3 Bft) 97,87 %
14.01.2019 19:26 3,2 C 2,8 C 2,2 C 92 % 1017,0 hPa 0,0 l/m 0 min 0 min 0 W/m 9,7 km/h (2 Bft) 97,87 %
14.01.2019 19:28 3,2 C 2,8 C 1,7 C 92 % 1017,0 hPa 0,0 l/m 0 min 0 min 0 W/m 9,7 km/h (2 Bft) 95,74 %
14.01.2019 19:30 3,2 C 2,8 C 1,7 C 92 % 1017,0 hPa 0,0 l/m 0 min 0 min 0 W/m 6,4 km/h (2 Bft) 97,83 %
14.01.2019 19:32 3,2 C 2,8 C 1,7 C 92 % 1017,0 hPa 0,0 l/m 0 min 0 min 0 W/m 12,9 km/h (3 Bft) 95,74 %
14.01.2019 19:34 3,2 C 2,8 C 1,7 C 92 % 1017,0 hPa 0,0 l/m 0 min 0 min 0 W/m 9,7 km/h (2 Bft) 97,87 %
14.01.2019 19:36 3,2 C 2,8 C 1,7 C 92 % 1017,1 hPa 0,0 l/m 0 min 0 min 0 W/m 9,7 km/h (2 Bft) 98,31 %
14.01.2019 19:38 3,2 C 2,8 C 1,7 C 92 % 1017,1 hPa 0,0 l/m 0 min 0 min 0 W/m 12,9 km/h (3 Bft) 97,14 %
14.01.2019 19:40 3,2 C 2,8 C 1,7 C 92 % 1017,2 hPa 0,0 l/m 0 min 0 min 0 W/m 12,9 km/h (3 Bft) 97,87 %
14.01.2019 19:42 3,2 C 2,8 C 1,7 C 92 % 1017,2 hPa 0,0 l/m 0 min 0 min 0 W/m 9,7 km/h (2 Bft) 97,83 %
14.01.2019 19:44 3,1 C 2,8 C 1,7 C 92 % 1017,2 hPa 0,0 l/m 0 min 0 min 0 W/m 9,7 km/h (2 Bft) 95,74 %
14.01.2019 19:46 3,1 C 2,8 C 1,7 C 92 % 1017,2 hPa 0,0 l/m 0 min 0 min 0 W/m 12,9 km/h (3 Bft) 93,62 %
14.01.2019 19:48 3,1 C 2,8 C 1,7 C 92 % 1017,2 hPa 0,0 l/m 0 min 0 min 0 W/m 9,7 km/h (2 Bft) 95,74 %
14.01.2019 19:50 3,1 C 2,2 C 1,7 C 91 % 1017,3 hPa 0,0 l/m 0 min 0 min 0 W/m 9,7 km/h (2 Bft) 93,62 %
14.01.2019 19:52 3,1 C 2,2 C 1,7 C 92 % 1017,3 hPa 0,0 l/m 0 min 0 min 0 W/m 6,4 km/h (2 Bft) 97,87 %
14.01.2019 19:54 3,1 C 2,2 C 1,7 C 92 % 1017,3 hPa 0,0 l/m 0 min 0 min 0 W/m 9,7 km/h (2 Bft) 97,83 %
14.01.2019 19:56 3,1 C 2,2 C 1,7 C 92 % 1017,3 hPa 0,0 l/m 0 min 0 min 0 W/m 6,4 km/h (2 Bft) 95,74 %
14.01.2019 19:58 3,1 C 2,2 C 1,7 C 92 % 1017,3 hPa 0,0 l/m 0 min 0 min 0 W/m 6,4 km/h (2 Bft) 95,74 %
14.01.2019 20:00 3,0 C 2,2 C 1,7 C 92 % 1017,4 hPa 0,0 l/m 0 min 0 min 0 W/m 6,4 km/h (2 Bft) 97,87 %
14.01.2019 20:02 3,0 C 2,2 C 1,7 C 92 % 1017,4 hPa 0,0 l/m 0 min 0 min 0 W/m 6,4 km/h (2 Bft) 95,74 %
14.01.2019 20:04 3,0 C 2,2 C 1,7 C 92 % 1017,4 hPa 0,0 l/m 0 min 0 min 0 W/m 6,4 km/h (2 Bft) 95,74 %
14.01.2019 20:06 3,0 C 2,2 C 1,7 C 92 % 1017,5 hPa 0,0 l/m 0 min 0 min 0 W/m 6,4 km/h (2 Bft) 93,10 %
14.01.2019 20:08 3,0 C 2,2 C 1,7 C 92 % 1017,5 hPa 0,0 l/m 0 min 0 min 0 W/m 3,2 km/h (1 Bft) 97,14 %
14.01.2019 20:10 2,9 C 1,7 C 1,1 C 92 % 1017,4 hPa 0,0 l/m 0 min 0 min 0 W/m 6,4 km/h (2 Bft) 97,87 %
14.01.2019 20:12 2,9 C 1,7 C 1,1 C 92 % 1017,5 hPa 0,0 l/m 0 min 0 min 0 W/m 3,2 km/h (1 Bft) 95,74 %
14.01.2019 20:14 2,9 C 1,7 C 1,1 C 92 % 1017,5 hPa 0,0 l/m 0 min 0 min 0 W/m 6,4 km/h (2 Bft) 95,74 %
14.01.2019 20:16 2,9 C 1,7 C 1,1 C 92 % 1017,5 hPa 0,0 l/m 0 min 0 min 0 W/m 0,0 km/h (0 Bft) 95,65 %
14.01.2019 20:18 2,8 C 1,7 C 1,1 C 92 % 1017,5 hPa 0,0 l/m 0 min 0 min 0 W/m 9,7 km/h (2 Bft) 97,87 %
14.01.2019 20:20 2,8 C 1,7 C 1,1 C 92 % 1017,5 hPa 0,0 l/m 0 min 0 min 0 W/m 6,4 km/h (2 Bft) 95,74 %
14.01.2019 20:22 2,8 C 1,7 C 1,1 C 92 % 1017,5 hPa 0,0 l/m 0 min 0 min 0 W/m 6,4 km/h (2 Bft) 97,87 %
14.01.2019 20:24 2,7 C 1,1 C 1,1 C 92 % 1017,4 hPa 0,0 l/m 0 min 0 min 0 W/m 6,4 km/h (2 Bft) 97,87 %
14.01.2019 20:26 2,7 C 1,1 C 1,1 C 92 % 1017,4 hPa 0,0 l/m 0 min 0 min 0 W/m 9,7 km/h (2 Bft) 97,87 %
14.01.2019 20:28 2,7 C 1,1 C 0,6 C 92 % 1017,4 hPa 0,0 l/m 0 min 0 min 0 W/m 6,4 km/h (2 Bft) 97,83 %
14.01.2019 20:30 2,6 C 1,1 C 0,6 C 92 % 1017,5 hPa 0,0 l/m 0 min 0 min 0 W/m 9,7 km/h (2 Bft) 97,87 %
14.01.2019 20:32 2,6 C 1,1 C 0,6 C 92 % 1017,6 hPa 0,0 l/m 0 min 0 min 0 W/m 6,4 km/h (2 Bft) 97,87 %
14.01.2019 20:34 2,5 C 1,1 C 0,6 C 92 % 1017,6 hPa 0,0 l/m 0 min 0 min 0 W/m 3,2 km/h (1 Bft) 93,62 %
14.01.2019 20:36 2,5 C 1,1 C 0,6 C 92 % 1017,6 hPa 0,0 l/m 0 min 0 min 0 W/m 6,4 km/h (2 Bft) 96,55 %
14.01.2019 20:38 2,4 C 1,1 C 0,6 C 92 % 1017,7 hPa 0,0 l/m 0 min 0 min 0 W/m 6,4 km/h (2 Bft) 100,00 %
14.01.2019 20:40 2,4 C 1,1 C 0,6 C 92 % 1017,6 hPa 0,0 l/m 0 min 0 min 0 W/m 3,2 km/h (1 Bft) 93,48 %
14.01.2019 20:42 2,4 C 1,1 C 0,6 C 92 % 1017,7 hPa 0,0 l/m 0 min 0 min 0 W/m 3,2 km/h (1 Bft) 95,74 %
14.01.2019 20:44 2,4 C 1,1 C 0,6 C 92 % 1017,7 hPa 0,0 l/m 0 min 0 min 0 W/m 3,2 km/h (1 Bft) 97,87 %
14.01.2019 20:46 2,3 C 1,1 C 0,6 C 92 % 1017,7 hPa 0,0 l/m 0 min 0 min 0 W/m 3,2 km/h (1 Bft) 97,87 %
14.01.2019 20:48 2,3 C 1,1 C 0,6 C 92 % 1017,6 hPa 0,0 l/m 0 min 0 min 0 W/m 6,4 km/h (2 Bft) 95,74 %
14.01.2019 20:50 2,3 C 1,1 C 0,6 C 92 % 1017,7 hPa 0,0 l/m 0 min 0 min 0 W/m 3,2 km/h (1 Bft) 97,87 %
14.01.2019 20:52 2,3 C 1,1 C 0,6 C 92 % 1017,7 hPa 0,0 l/m 0 min 0 min 0 W/m 6,4 km/h (2 Bft) 97,83 %
14.01.2019 20:54 2,3 C 1,7 C 1,1 C 92 % 1017,8 hPa 0,0 l/m 0 min 0 min 0 W/m 6,4 km/h (2 Bft) 100,00 %
14.01.2019 20:56 2,2 C 1,7 C 1,1 C 92 % 1017,7 hPa 0,0 l/m 0 min 0 min 0 W/m 9,7 km/h (2 Bft) 97,87 %
14.01.2019 20:58 2,2 C 1,7 C 1,1 C 92 % 1017,9 hPa 0,0 l/m 0 min 0 min 0 W/m 9,7 km/h (2 Bft) 97,87 %
14.01.2019 21:00 2,3 C 1,7 C 1,1 C 92 % 1017,8 hPa 0,0 l/m 0 min 0 min 0 W/m 6,4 km/h (2 Bft) 97,87 %
14.01.2019 21:02 2,3 C 1,7 C 1,1 C 93 % 1017,8 hPa 0,0 l/m 0 min 0 min 0 W/m 9,7 km/h (2 Bft) 95,74 %
14.01.2019 21:04 2,3 C 1,7 C 1,1 C 93 % 1017,8 hPa 0,0 l/m 0 min 0 min 0 W/m 9,7 km/h (2 Bft) 95,65 %
14.01.2019 21:06 2,3 C 2,2 C 1,1 C 93 % 1017,9 hPa 0,0 l/m 0 min 0 min 0 W/m 16,1 km/h (3 Bft) 96,61 %
14.01.2019 21:08 2,3 C 2,2 C 1,1 C 93 % 1017,8 hPa 0,0 l/m 0 min 0 min 0 W/m 9,7 km/h (2 Bft) 97,14 %
14.01.2019 21:10 2,3 C 1,7 C 1,1 C 93 % 1017,9 hPa 0,0 l/m 0 min 0 min 0 W/m 12,9 km/h (3 Bft) 97,87 %
14.01.2019 21:12 2,3 C 2,2 C 1,1 C 93 % 1018,0 hPa 0,0 l/m 0 min 0 min 0 W/m 9,7 km/h (2 Bft) 97,87 %
14.01.2019 21:14 2,3 C 2,2 C 1,1 C 93 % 1018,0 hPa 0,0 l/m 0 min 0 min 0 W/m 19,3 km/h (3 Bft) 97,83 %
14.01.2019 21:16 2,3 C 2,2 C 1,1 C 93 % 1018,0 hPa 0,0 l/m 0 min 0 min 0 W/m 9,7 km/h (2 Bft) 97,87 %
14.01.2019 21:18 2,3 C 2,2 C 1,1 C 93 % 1018,0 hPa 0,0 l/m 0 min 0 min 0 W/m 9,7 km/h (2 Bft) 97,87 %
14.01.2019 21:20 2,3 C 2,2 C 1,1 C 93 % 1018,0 hPa 0,0 l/m 0 min 0 min 0 W/m 16,1 km/h (3 Bft) 95,74 %
14.01.2019 21:22 2,4 C 1,7 C 1,1 C 93 % 1018,0 hPa 0,0 l/m 0 min 0 min 0 W/m 12,9 km/h (3 Bft) 93,62 %
14.01.2019 21:24 2,4 C 2,2 C 1,1 C 93 % 1018,0 hPa 0,0 l/m 0 min 0 min 0 W/m 9,7 km/h (2 Bft) 100,00 %
14.01.2019 21:26 2,4 C 2,2 C 1,1 C 93 % 1018,0 hPa 0,0 l/m 0 min 0 min 0 W/m 9,7 km/h (2 Bft) 100,00 %
14.01.2019 21:28 2,4 C 2,2 C 1,1 C 93 % 1018,0 hPa 0,0 l/m 0 min 0 min 0 W/m 9,7 km/h (2 Bft) 100,00 %
14.01.2019 21:30 2,4 C 2,2 C 1,7 C 93 % 1018,0 hPa 0,0 l/m 0 min 0 min 0 W/m 12,9 km/h (3 Bft) 100,00 %
14.01.2019 21:32 2,4 C 2,2 C 1,7 C 93 % 1018,0 hPa 0,0 l/m 0 min 0 min 0 W/m 12,9 km/h (3 Bft) 95,74 %
14.01.2019 21:34 2,4 C 2,2 C 1,7 C 93 % 1018,2 hPa 0,0 l/m 0 min 0 min 0 W/m 9,7 km/h (2 Bft) 100,00 %
14.01.2019 21:36 2,4 C 2,2 C 1,7 C 93 % 1018,1 hPa 0,0 l/m 0 min 2 min 0 W/m 9,7 km/h (2 Bft) 100,00 %
14.01.2019 21:38 2,5 C 2,2 C 1,7 C 94 % 1018,2 hPa 0,0 l/m 0 min 2 min 0 W/m 12,9 km/h (3 Bft) 100,00 %
14.01.2019 21:40 2,5 C 2,2 C 1,7 C 94 % 1018,2 hPa 0,0 l/m 0 min 0 min 0 W/m 12,9 km/h (3 Bft) 97,87 %
14.01.2019 21:42 2,5 C 2,2 C 1,7 C 94 % 1018,2 hPa 0,0 l/m 0 min 0 min 0 W/m 9,7 km/h (2 Bft) 100,00 %
14.01.2019 21:44 2,5 C 2,2 C 1,7 C 94 % 1018,3 hPa 0,0 l/m 0 min 2 min 0 W/m 9,7 km/h (2 Bft) 100,00 %
14.01.2019 21:46 2,6 C 2,2 C 1,7 C 94 % 1018,3 hPa 0,0 l/m 0 min 2 min 0 W/m 12,9 km/h (3 Bft) 100,00 %
14.01.2019 21:48 2,6 C 2,2 C 1,7 C 94 % 1018,2 hPa 0,0 l/m 0 min 2 min 0 W/m 12,9 km/h (3 Bft) 100,00 %
14.01.2019 21:50 2,6 C 2,2 C 1,7 C 94 % 1018,0 hPa 0,0 l/m 0 min 2 min 0 W/m 9,7 km/h (2 Bft) 95,65 %
14.01.2019 21:52 2,6 C 2,2 C 1,7 C 94 % 1017,9 hPa 0,0 l/m 0 min 0 min 0 W/m 6,4 km/h (2 Bft) 100,00 %
14.01.2019 21:54 2,6 C 2,2 C 1,7 C 94 % 1018,0 hPa 0,0 l/m 0 min 0 min 0 W/m 6,4 km/h (2 Bft) 100,00 %
14.01.2019 21:56 2,6 C 2,2 C 1,7 C 94 % 1018,0 hPa 0,0 l/m 0 min 2 min 0 W/m 9,7 km/h (2 Bft) 100,00 %
14.01.2019 21:58 2,6 C 2,2 C 1,7 C 94 % 1018,0 hPa 0,0 l/m 0 min 0 min 0 W/m 9,7 km/h (2 Bft) 100,00 %
14.01.2019 22:00 2,6 C 2,2 C 1,7 C 94 % 1017,9 hPa 0,0 l/m 0 min 0 min 0 W/m 12,9 km/h (3 Bft) 100,00 %
14.01.2019 22:02 2,6 C 2,2 C 1,7 C 94 % 1018,0 hPa 0,0 l/m 0 min 0 min 0 W/m 12,9 km/h (3 Bft) 100,00 %
14.01.2019 22:04 2,6 C 2,2 C 1,7 C 94 % 1018,0 hPa 0,0 l/m 0 min 2 min 0 W/m 6,4 km/h (2 Bft) 100,00 %
14.01.2019 22:06 2,6 C 2,2 C 1,1 C 94 % 1018,1 hPa 0,0 l/m 0 min 0 min 0 W/m 9,7 km/h (2 Bft) 100,00 %
14.01.2019 22:08 2,6 C 2,2 C 1,1 C 94 % 1018,0 hPa 0,0 l/m 0 min 0 min 0 W/m 9,7 km/h (2 Bft) 100,00 %
14.01.2019 22:10 2,6 C 1,7 C 1,1 C 94 % 1018,1 hPa 0,0 l/m 0 min 0 min 0 W/m 9,7 km/h (2 Bft) 100,00 %
14.01.2019 22:12 2,6 C 1,7 C 1,1 C 94 % 1018,1 hPa 0,0 l/m 0 min 0 min 0 W/m 16,1 km/h (3 Bft) 100,00 %
14.01.2019 22:14 2,6 C 1,7 C 1,1 C 94 % 1018,1 hPa 0,0 l/m 0 min 0 min 0 W/m 9,7 km/h (2 Bft) 97,83 %
14.01.2019 22:16 2,6 C 1,7 C 1,1 C 94 % 1018,1 hPa 0,0 l/m 0 min 0 min 0 W/m 6,4 km/h (2 Bft) 97,87 %
14.01.2019 22:18 2,6 C 1,7 C 1,1 C 94 % 1018,1 hPa 0,0 l/m 0 min 0 min 0 W/m 9,7 km/h (2 Bft) 100,00 %
14.01.2019 22:20 2,5 C 1,7 C 1,1 C 94 % 1018,1 hPa 0,0 l/m 0 min 0 min 0 W/m 12,9 km/h (3 Bft) 100,00 %
14.01.2019 22:22 2,5 C 1,7 C 1,1 C 94 % 1018,1 hPa 0,0 l/m 0 min 0 min 0 W/m 12,9 km/h (3 Bft) 97,87 %
14.01.2019 22:24 2,5 C 1,7 C 1,1 C 94 % 1018,0 hPa 0,0 l/m 0 min 2 min 0 W/m 6,4 km/h (2 Bft) 97,87 %
14.01.2019 22:26 2,5 C 1,7 C 1,1 C 94 % 1018,0 hPa 0,0 l/m 0 min 0 min 0 W/m 6,4 km/h (2 Bft) 97,83 %
14.01.2019 22:28 2,4 C 1,7 C 1,1 C 94 % 1018,0 hPa 0,0 l/m 0 min 0 min 0 W/m 9,7 km/h (2 Bft) 100,00 %
14.01.2019 22:30 2,4 C 1,7 C 1,1 C 94 % 1017,9 hPa 0,0 l/m 0 min 0 min 0 W/m 6,4 km/h (2 Bft) 97,87 %
14.01.2019 22:32 2,4 C 1,7 C 1,1 C 94 % 1017,9 hPa 0,0 l/m 0 min 0 min 0 W/m 6,4 km/h (2 Bft) 93,62 %
14.01.2019 22:34 2,4 C 1,7 C 1,1 C 94 % 1018,1 hPa 0,0 l/m 0 min 2 min 0 W/m 6,4 km/h (2 Bft) 93,62 %
14.01.2019 22:36 2,4 C 1,7 C 1,1 C 94 % 1018,1 hPa 0,0 l/m 0 min 0 min 0 W/m 6,4 km/h (2 Bft) 96,55 %
14.01.2019 22:38 2,4 C 1,7 C 1,1 C 94 % 1018,1 hPa 0,0 l/m 0 min 0 min 0 W/m 6,4 km/h (2 Bft) 94,29 %
14.01.2019 22:40 2,4 C 1,7 C 1,1 C 94 % 1018,1 hPa 0,0 l/m 0 min 0 min 0 W/m 9,7 km/h (2 Bft) 95,74 %
14.01.2019 22:42 2,4 C 1,7 C 1,1 C 94 % 1018,1 hPa 0,0 l/m 0 min 0 min 0 W/m 9,7 km/h (2 Bft) 95,74 %
14.01.2019 22:44 2,4 C 1,7 C 1,1 C 94 % 1018,1 hPa 0,0 l/m 0 min 0 min 0 W/m 12,9 km/h (3 Bft) 95,74 %
14.01.2019 22:46 2,4 C 1,7 C 1,1 C 94 % 1018,1 hPa 0,0 l/m 0 min 0 min 0 W/m 9,7 km/h (2 Bft) 95,74 %
14.01.2019 22:48 2,3 C 1,7 C 1,1 C 94 % 1018,2 hPa 0,0 l/m 0 min 0 min 0 W/m 9,7 km/h (2 Bft) 95,65 %
14.01.2019 22:50 2,3 C 1,7 C 1,1 C 94 % 1018,2 hPa 0,0 l/m 0 min 0 min 0 W/m 16,1 km/h (3 Bft) 95,74 %
14.01.2019 22:52 2,3 C 1,7 C 1,1 C 94 % 1018,3 hPa 0,0 l/m 0 min 0 min 0 W/m 12,9 km/h (3 Bft) 95,74 %
14.01.2019 22:54 2,3 C 1,7 C 1,1 C 94 % 1018,3 hPa 0,0 l/m 0 min 0 min 0 W/m 9,7 km/h (2 Bft) 95,74 %
14.01.2019 22:56 2,3 C 1,1 C 1,1 C 94 % 1018,4 hPa 0,0 l/m 0 min 0 min 0 W/m 9,7 km/h (2 Bft) 95,74 %
14.01.2019 22:58 2,3 C 1,1 C 0,6 C 94 % 1018,4 hPa 0,0 l/m 0 min 0 min 0 W/m 9,7 km/h (2 Bft) 93,62 %
14.01.2019 23:00 2,2 C 1,1 C 0,6 C 94 % 1018,3 hPa 0,0 l/m 0 min 0 min 0 W/m 9,7 km/h (2 Bft) 95,65 %
14.01.2019 23:02 2,2 C 1,1 C 0,6 C 94 % 1018,3 hPa 0,0 l/m 0 min 0 min 0 W/m 3,2 km/h (1 Bft) 95,74 %
14.01.2019 23:04 2,2 C 1,1 C 0,6 C 94 % 1018,4 hPa 0,0 l/m 0 min 0 min 0 W/m 6,4 km/h (2 Bft) 95,74 %
14.01.2019 23:06 2,2 C 1,1 C 0,6 C 94 % 1018,4 hPa 0,0 l/m 0 min 0 min 0 W/m 6,4 km/h (2 Bft) 94,92 %
14.01.2019 23:08 2,1 C 1,1 C 0,6 C 94 % 1018,3 hPa 0,0 l/m 0 min 0 min 0 W/m 6,4 km/h (2 Bft) 94,29 %
14.01.2019 23:10 2,1 C 1,1 C 0,6 C 94 % 1018,4 hPa 0,0 l/m 0 min 0 min 0 W/m 6,4 km/h (2 Bft) 97,87 %
14.01.2019 23:12 2,1 C 0,6 C 0,6 C 94 % 1018,5 hPa 0,0 l/m 0 min 0 min 0 W/m 9,7 km/h (2 Bft) 97,83 %
14.01.2019 23:14 2,1 C 0,6 C 0,6 C 94 % 1018,4 hPa 0,0 l/m 0 min 0 min 0 W/m 6,4 km/h (2 Bft) 97,87 %
14.01.2019 23:16 2,0 C 0,6 C 0,6 C 94 % 1018,4 hPa 0,0 l/m 0 min 0 min 0 W/m 6,4 km/h (2 Bft) 97,87 %
14.01.2019 23:18 1,9 C 0,6 C 0,6 C 94 % 1018,4 hPa 0,0 l/m 0 min 0 min 0 W/m 3,2 km/h (1 Bft) 97,87 %
14.01.2019 23:20 1,9 C 0,6 C 0,6 C 94 % 1018,4 hPa 0,0 l/m 0 min 0 min 0 W/m 3,2 km/h (1 Bft) 95,74 %
14.01.2019 23:22 1,9 C 0,6 C 0,0 C 94 % 1018,5 hPa 0,0 l/m 0 min 0 min 0 W/m 3,2 km/h (1 Bft) 95,65 %
14.01.2019 23:24 1,9 C 0,6 C 0,0 C 94 % 1018,5 hPa 0,0 l/m 0 min 0 min 0 W/m 3,2 km/h (1 Bft) 93,62 %
14.01.2019 23:26 1,9 C 0,6 C 0,0 C 94 % 1018,6 hPa 0,0 l/m 0 min 0 min 0 W/m 3,2 km/h (1 Bft) 97,87 %
14.01.2019 23:28 1,8 C 0,6 C 0,0 C 94 % 1018,5 hPa 0,0 l/m 0 min 0 min 0 W/m 6,4 km/h (2 Bft) 95,74 %
14.01.2019 23:30 1,8 C 0,6 C 0,0 C 94 % 1018,6 hPa 0,0 l/m 0 min 0 min 0 W/m 9,7 km/h (2 Bft) 93,62 %
14.01.2019 23:32 1,8 C 0,6 C 0,0 C 94 % 1018,5 hPa 0,0 l/m 0 min 0 min 0 W/m 6,4 km/h (2 Bft) 93,62 %
14.01.2019 23:34 1,7 C 0,6 C 0,0 C 94 % 1018,5 hPa 0,0 l/m 0 min 0 min 0 W/m 6,4 km/h (2 Bft) 93,48 %
14.01.2019 23:36 1,7 C 0,6 C 0,0 C 94 % 1018,5 hPa 0,0 l/m 0 min 0 min 0 W/m 6,4 km/h (2 Bft) 96,61 %
14.01.2019 23:38 1,7 C 0,6 C 0,0 C 94 % 1018,6 hPa 0,0 l/m 0 min 0 min 0 W/m 6,4 km/h (2 Bft) 97,14 %
14.01.2019 23:40 1,7 C 0,6 C 0,0 C 94 % 1018,6 hPa 0,0 l/m 0 min 0 min 0 W/m 3,2 km/h (1 Bft) 97,87 %
14.01.2019 23:42 1,7 C 0,6 C 0,6 C 94 % 1018,5 hPa 0,0 l/m 0 min 0 min 0 W/m 6,4 km/h (2 Bft) 93,62 %
14.01.2019 23:44 1,6 C 0,6 C 0,0 C 94 % 1018,6 hPa 0,0 l/m 0 min 0 min 0 W/m 3,2 km/h (1 Bft) 97,87 %
14.01.2019 23:46 1,6 C 0,6 C 0,0 C 94 % 1018,5 hPa 0,0 l/m 0 min 0 min 0 W/m 3,2 km/h (1 Bft) 97,83 %
14.01.2019 23:48 1,6 C 0,6 C 0,0 C 94 % 1018,5 hPa 0,0 l/m 0 min 0 min 0 W/m 9,7 km/h (2 Bft) 95,74 %
14.01.2019 23:50 1,6 C 0,6 C 0,0 C 94 % 1018,5 hPa 0,0 l/m 0 min 0 min 0 W/m 6,4 km/h (2 Bft) 97,87 %
14.01.2019 23:52 1,6 C 0,6 C 0,0 C 94 % 1018,5 hPa 0,0 l/m 0 min 0 min 0 W/m 6,4 km/h (2 Bft) 97,87 %
14.01.2019 23:54 1,6 C 0,6 C 0,6 C 94 % 1018,6 hPa 0,0 l/m 0 min 0 min 0 W/m 6,4 km/h (2 Bft) 97,87 %
14.01.2019 23:56 1,5 C 0,6 C 0,6 C 94 % 1018,6 hPa 0,0 l/m 0 min 0 min 0 W/m 6,4 km/h (2 Bft) 95,74 %
14.01.2019 23:58 1,5 C 0,6 C 0,6 C 94 % 1018,5 hPa 0,0 l/m 0 min 0 min 0 W/m 6,4 km/h (2 Bft) 95,65 %
_ Min-Zeit 23:56 23:12 23:22 13:54 00:00 - - - - 17:20 12:48
Minimum _ 1,5 C 0,6 C 0,0 C 86 % 1002,3 hPa - - - - 0,0 km/h (0 Bft) 85,11 %
_ Max-Zeit 01:00 13:18 13:38 03:40 23:26 00:28 10:34 00:14 13:40 13:58 01:18
Maximum _ 6,4 C 12,2 C 5,6 C 97 % 1018,6 hPa 0,2 l/m 2 min 2 min 378 W/m 61,2 km/h
W-NW (7 Bft)
100,00 %
Durchschnitt _ 4,4 C 4,2 C 3,0 C 94 % 1011,2 hPa #4,0 l/m #2:36 h #6:32 h 106 W/m 15,9 km/h (3 Bft) 97,12 %
© 2019 W. Hausmann